Time,TemperatureF,DewpointF,PressureIn,WindDirection,WindDirectionDegrees,WindSpeedMPH,WindSpeedGustMPH,Humidity,HourlyPrecipIn,Conditions,Clouds,dailyrainin,SoftwareType,DateUTC
2013-04-04 00:00:00,30.1,14.9,30.16,SSE,158,0.9,1.8,53,0.00,,,0.00,WUHU216HW,2013-04-04 04:00:00,
2013-04-04 00:05:00,29.9,14.4,30.16,WNW,293,1.6,1.8,52,0.00,,,0.00,WUHU216HW,2013-04-04 04:05:00,
2013-04-04 00:06:00,29.9,14.4,30.16,WNW,293,1.6,1.8,52,0.00,,,0.00,WUHU216HW,2013-04-04 04:06:00,
2013-04-04 00:07:00,30.1,14.5,30.16,NNW,338,2.0,2.0,52,0.00,,,0.00,WUHU216HW,2013-04-04 04:07:00,
2013-04-04 00:10:00,30.4,14.4,30.16,NNW,338,1.1,2.0,51,0.00,,,0.00,WUHU216HW,2013-04-04 04:10:00,
2013-04-04 00:11:00,30.4,14.4,30.16,WNW,293,0.4,2.0,51,0.00,,,0.00,WUHU216HW,2013-04-04 04:11:00,
2013-04-04 00:13:00,30.6,14.6,30.16,SE,135,0.7,2.0,51,0.00,,,0.00,WUHU216HW,2013-04-04 04:13:00,
2013-04-04 00:16:00,30.2,15.1,30.17,SSE,158,2.7,2.7,53,0.00,,,0.00,WUHU216HW,2013-04-04 04:16:00,
2013-04-04 00:17:00,30.2,15.1,30.17,SSE,158,2.7,2.7,53,0.00,,,0.00,WUHU216HW,2013-04-04 04:17:00,
2013-04-04 00:18:00,29.9,15.2,30.17,SE,135,2.5,2.7,54,0.00,,,0.00,WUHU216HW,2013-04-04 04:18:00,
2013-04-04 00:22:00,29.5,14.5,30.16,SE,135,1.1,2.7,53,0.00,,,0.00,WUHU216HW,2013-04-04 04:22:00,
2013-04-04 00:24:00,29.5,14.0,30.16,SE,135,0.4,2.7,52,0.00,,,0.00,WUHU216HW,2013-04-04 04:24:00,
2013-04-04 00:26:00,29.5,14.0,30.16,SE,135,0.7,2.7,52,0.00,,,0.00,WUHU216HW,2013-04-04 04:26:00,
2013-04-04 00:28:00,29.5,14.5,30.16,SSE,158,1.1,2.5,53,0.00,,,0.00,WUHU216HW,2013-04-04 04:28:00,
2013-04-04 00:30:00,29.5,14.9,30.17,SSE,158,1.1,1.8,54,0.00,,,0.00,WUHU216HW,2013-04-04 04:30:00,
2013-04-04 00:31:00,29.5,14.9,30.17,SSE,158,0.7,1.3,54,0.00,,,0.00,WUHU216HW,2013-04-04 04:31:00,
2013-04-04 00:33:00,29.7,14.6,30.17,SSE,158,0.0,1.3,53,0.00,,,0.00,WUHU216HW,2013-04-04 04:33:00,
2013-04-04 00:35:00,29.7,14.2,30.16,NW,315,1.8,1.8,52,0.00,,,0.00,WUHU216HW,2013-04-04 04:35:00,
2013-04-04 00:36:00,29.9,14.4,30.16,NW,315,1.3,1.8,52,0.00,,,0.00,WUHU216HW,2013-04-04 04:36:00,
2013-04-04 00:39:00,29.9,14.4,30.16,NW,315,0.0,1.8,52,0.00,,,0.00,WUHU216HW,2013-04-04 04:39:00,
2013-04-04 00:42:00,29.9,14.8,30.17,SSW,203,0.9,1.8,53,0.00,,,0.00,WUHU216HW,2013-04-04 04:42:00,
2013-04-04 00:43:00,29.9,14.8,30.17,SSW,203,0.4,1.8,53,0.00,,,0.00,WUHU216HW,2013-04-04 04:43:00,
2013-04-04 00:44:00,29.9,14.8,30.17,SSW,203,0.4,1.8,53,0.00,,,0.00,WUHU216HW,2013-04-04 04:44:00,
2013-04-04 00:46:00,29.9,14.4,30.16,SE,135,0.0,1.3,52,0.00,,,0.00,WUHU216HW,2013-04-04 04:46:00,
2013-04-04 00:47:00,29.9,14.4,30.17,SE,135,1.6,1.6,52,0.00,,,0.00,WUHU216HW,2013-04-04 04:47:00,
2013-04-04 00:49:00,29.9,14.4,30.17,SSE,158,1.8,1.8,52,0.00,,,0.00,WUHU216HW,2013-04-04 04:49:00,
2013-04-04 00:50:00,29.9,14.4,30.17,SSE,158,1.8,1.8,52,0.00,,,0.00,WUHU216HW,2013-04-04 04:50:00,
2013-04-04 00:53:00,29.9,14.4,30.16,SSE,158,0.7,1.8,52,0.00,,,0.00,WUHU216HW,2013-04-04 04:53:00,
2013-04-04 00:54:00,29.7,14.2,30.16,SSE,158,0.4,1.8,52,0.00,,,0.00,WUHU216HW,2013-04-04 04:54:00,
2013-04-04 00:57:00,29.5,14.0,30.17,SSE,158,0.4,1.8,52,0.00,,,0.00,WUHU216HW,2013-04-04 04:57:00,
2013-04-04 00:59:00,29.7,14.2,30.17,SSE,158,1.1,1.8,52,0.00,,,0.00,WUHU216HW,2013-04-04 04:59:00,
2013-04-04 01:00:00,29.7,14.2,30.17,SSW,203,0.4,1.6,52,0.00,,,0.00,WUHU216HW,2013-04-04 05:00:00,
2013-04-04 01:02:00,29.7,14.2,30.16,SSW,203,0.0,1.1,52,0.00,,,0.00,WUHU216HW,2013-04-04 05:02:00,
2013-04-04 01:04:00,29.9,14.4,30.16,NNW,338,0.7,1.1,52,0.00,,,0.00,WUHU216HW,2013-04-04 05:04:00,
2013-04-04 01:08:00,29.7,13.8,30.17,NNW,338,0.4,1.1,51,0.00,,,0.00,WUHU216HW,2013-04-04 05:08:00,
2013-04-04 01:09:00,29.7,13.8,30.17,North,0,0.7,1.1,51,0.00,,,0.00,WUHU216HW,2013-04-04 05:09:00,
2013-04-04 01:10:00,29.7,13.8,30.17,North,0,0.7,1.1,51,0.00,,,0.00,WUHU216HW,2013-04-04 05:10:00,
2013-04-04 01:14:00,29.7,13.8,30.16,NNW,338,0.4,1.1,51,0.00,,,0.00,WUHU216HW,2013-04-04 05:14:00,
2013-04-04 01:15:00,29.7,13.8,30.16,NNW,338,0.4,1.1,51,0.00,,,0.00,WUHU216HW,2013-04-04 05:15:00,
2013-04-04 01:19:00,29.7,13.8,30.17,SE,135,0.9,1.6,51,0.00,,,0.00,WUHU216HW,2013-04-04 05:19:00,
2013-04-04 01:20:00,29.7,13.8,30.17,SE,135,0.9,1.6,51,0.00,,,0.00,WUHU216HW,2013-04-04 05:20:00,
2013-04-04 01:22:00,29.7,14.2,30.17,SSE,158,0.0,1.6,52,0.00,,,0.00,WUHU216HW,2013-04-04 05:22:00,
2013-04-04 01:26:00,29.5,13.6,30.16,NNE,23,0.0,1.6,51,0.00,,,0.00,WUHU216HW,2013-04-04 05:26:00,
2013-04-04 01:27:00,29.5,13.6,30.16,NE,45,0.0,1.6,51,0.00,,,0.00,WUHU216HW,2013-04-04 05:27:00,
2013-04-04 01:28:00,29.5,13.6,30.16,NE,45,0.0,1.6,51,0.00,,,0.00,WUHU216HW,2013-04-04 05:28:00,
2013-04-04 01:31:00,29.5,14.0,30.17,South,180,1.1,1.1,52,0.00,,,0.00,WUHU216HW,2013-04-04 05:31:00,
2013-04-04 01:32:00,29.5,14.0,30.17,South,180,0.7,1.1,52,0.00,,,0.00,WUHU216HW,2013-04-04 05:32:00,
2013-04-04 01:33:00,29.5,14.0,30.17,South,180,0.4,1.1,52,0.00,,,0.00,WUHU216HW,2013-04-04 05:33:00,
2013-04-04 01:37:00,29.3,13.9,30.16,NW,315,2.0,2.0,52,0.00,,,0.00,WUHU216HW,2013-04-04 05:37:00,
2013-04-04 01:38:00,29.3,13.9,30.16,NW,315,2.0,2.0,52,0.00,,,0.00,WUHU216HW,2013-04-04 05:38:00,
2013-04-04 01:39:00,29.2,13.7,30.16,North,0,0.9,2.0,52,0.00,,,0.00,WUHU216HW,2013-04-04 05:39:00,
2013-04-04 01:42:00,29.2,13.7,30.16,NNW,338,0.0,2.0,52,0.00,,,0.00,WUHU216HW,2013-04-04 05:42:00,
2013-04-04 01:43:00,29.2,13.7,30.16,NNW,338,0.0,2.0,52,0.00,,,0.00,WUHU216HW,2013-04-04 05:43:00,
2013-04-04 01:46:00,29.0,14.4,30.16,South,180,0.7,2.0,54,0.00,,,0.00,WUHU216HW,2013-04-04 05:46:00,
2013-04-04 01:47:00,28.8,13.8,30.16,SSE,158,0.0,1.1,53,0.00,,,0.00,WUHU216HW,2013-04-04 05:47:00,
2013-04-04 01:48:00,28.6,13.7,30.16,SSE,158,0.0,1.1,53,0.00,,,0.00,WUHU216HW,2013-04-04 05:48:00,
2013-04-04 01:49:00,28.6,13.7,30.16,SSE,158,0.0,1.1,53,0.00,,,0.00,WUHU216HW,2013-04-04 05:49:00,
2013-04-04 01:51:00,28.4,13.5,30.16,North,0,0.4,1.1,53,0.00,,,0.00,WUHU216HW,2013-04-04 05:51:00,
2013-04-04 01:54:00,28.4,13.5,30.16,North,0,0.4,1.1,53,0.00,,,0.00,WUHU216HW,2013-04-04 05:54:00,
2013-04-04 01:55:00,28.3,13.3,30.17,NNW,338,0.9,0.9,53,0.00,,,0.00,WUHU216HW,2013-04-04 05:55:00,
2013-04-04 01:57:00,28.3,13.3,30.16,NW,315,1.1,1.1,53,0.00,,,0.00,WUHU216HW,2013-04-04 05:57:00,
2013-04-04 01:59:00,28.3,13.3,30.16,NNW,338,1.8,1.8,53,0.00,,,0.00,WUHU216HW,2013-04-04 05:59:00,
2013-04-04 02:00:00,28.3,13.3,30.16,North,0,1.8,1.8,53,0.00,,,0.00,WUHU216HW,2013-04-04 06:00:00,
2013-04-04 02:01:00,28.3,13.3,30.16,NNE,23,1.8,1.8,53,0.00,,,0.00,WUHU216HW,2013-04-04 06:01:00,
2013-04-04 02:04:00,28.3,13.3,30.16,NE,45,0.9,1.8,53,0.00,,,0.00,WUHU216HW,2013-04-04 06:04:00,
2013-04-04 02:05:00,28.1,13.2,30.16,ENE,68,1.1,1.8,53,0.00,,,0.00,WUHU216HW,2013-04-04 06:05:00,
2013-04-04 02:08:00,28.4,13.9,30.16,North,0,2.7,2.7,54,0.00,,,0.00,WUHU216HW,2013-04-04 06:08:00,
2013-04-04 02:10:00,28.4,13.9,30.15,North,0,1.8,2.7,54,0.00,,,0.00,WUHU216HW,2013-04-04 06:10:00,
2013-04-04 02:11:00,28.4,13.9,30.15,North,0,2.0,2.7,54,0.00,,,0.00,WUHU216HW,2013-04-04 06:11:00,
2013-04-04 02:14:00,28.4,14.3,30.16,NNE,23,2.5,2.7,55,0.00,,,0.00,WUHU216HW,2013-04-04 06:14:00,
2013-04-04 02:15:00,28.3,14.1,30.16,NNE,23,1.6,2.7,55,0.00,,,0.00,WUHU216HW,2013-04-04 06:15:00,
2013-04-04 02:17:00,28.3,14.1,30.16,NNE,23,1.6,2.7,55,0.00,,,0.00,WUHU216HW,2013-04-04 06:17:00,
2013-04-04 02:18:00,28.1,14.0,30.16,NNE,23,2.2,2.5,55,0.00,,,0.00,WUHU216HW,2013-04-04 06:18:00,
2013-04-04 02:19:00,28.1,14.0,30.16,North,0,2.5,2.5,55,0.00,,,0.00,WUHU216HW,2013-04-04 06:19:00,
2013-04-04 02:21:00,28.1,14.0,30.16,North,0,2.7,2.7,55,0.00,,,0.00,WUHU216HW,2013-04-04 06:21:00,
2013-04-04 02:22:00,28.1,14.0,30.16,NNW,338,1.1,2.7,55,0.00,,,0.00,WUHU216HW,2013-04-04 06:22:00,
2013-04-04 02:23:00,28.1,14.0,30.16,NNW,338,1.3,2.7,55,0.00,,,0.00,WUHU216HW,2013-04-04 06:23:00,
2013-04-04 02:24:00,28.1,14.0,30.16,NNW,338,1.1,2.7,55,0.00,,,0.00,WUHU216HW,2013-04-04 06:24:00,
2013-04-04 02:27:00,27.9,13.8,30.16,North,0,1.1,2.7,55,0.00,,,0.00,WUHU216HW,2013-04-04 06:27:00,
2013-04-04 02:28:00,27.9,13.3,30.16,North,0,1.8,2.7,54,0.00,,,0.00,WUHU216HW,2013-04-04 06:28:00,
2013-04-04 02:29:00,27.9,13.3,30.16,NNE,23,1.8,2.7,54,0.00,,,0.00,WUHU216HW,2013-04-04 06:29:00,
2013-04-04 02:30:00,27.9,13.3,30.16,NNE,23,1.8,1.8,54,0.00,,,0.00,WUHU216HW,2013-04-04 06:30:00,
2013-04-04 02:33:00,27.9,13.3,30.16,North,0,1.1,2.0,54,0.00,,,0.00,WUHU216HW,2013-04-04 06:33:00,
2013-04-04 02:35:00,27.9,13.3,30.16,NNW,338,1.3,2.0,54,0.00,,,0.00,WUHU216HW,2013-04-04 06:35:00,
2013-04-04 02:37:00,27.7,13.1,30.16,NNW,338,1.1,2.0,54,0.00,,,0.00,WUHU216HW,2013-04-04 06:37:00,
2013-04-04 02:39:00,27.7,13.1,30.16,North,0,2.9,2.9,54,0.00,,,0.00,WUHU216HW,2013-04-04 06:39:00,
2013-04-04 02:40:00,27.7,13.1,30.16,North,0,2.9,2.9,54,0.00,,,0.00,WUHU216HW,2013-04-04 06:40:00,
2013-04-04 02:42:00,27.7,13.1,30.16,North,0,1.1,2.9,54,0.00,,,0.00,WUHU216HW,2013-04-04 06:42:00,
2013-04-04 02:45:00,27.7,13.6,30.16,NE,45,1.1,2.9,55,0.00,,,0.00,WUHU216HW,2013-04-04 06:45:00,
2013-04-04 02:47:00,27.7,14.1,30.16,North,0,2.9,2.9,56,0.00,,,0.00,WUHU216HW,2013-04-04 06:47:00,
2013-04-04 02:50:00,27.5,13.9,30.16,NNE,23,0.9,2.9,56,0.00,,,0.00,WUHU216HW,2013-04-04 06:50:00,
2013-04-04 02:51:00,27.5,13.9,30.16,NNE,23,0.9,2.9,56,0.00,,,0.00,WUHU216HW,2013-04-04 06:51:00,
2013-04-04 02:54:00,27.5,13.9,30.15,North,0,1.1,2.9,56,0.00,,,0.00,WUHU216HW,2013-04-04 06:54:00,
2013-04-04 02:56:00,27.4,13.7,30.14,NNW,338,0.4,2.9,56,0.00,,,0.00,WUHU216HW,2013-04-04 06:56:00,
2013-04-04 02:59:00,27.4,13.7,30.15,NNW,338,0.2,2.2,56,0.00,,,0.00,WUHU216HW,2013-04-04 06:59:00,
2013-04-04 03:00:00,27.0,13.3,30.15,NNE,23,0.4,2.2,56,0.00,,,0.00,WUHU216HW,2013-04-04 07:00:00,
2013-04-04 03:02:00,26.8,13.2,30.15,North,0,0.7,2.2,56,0.00,,,0.00,WUHU216HW,2013-04-04 07:02:00,
2013-04-04 03:04:00,26.8,13.2,30.15,North,0,0.0,1.1,56,0.00,,,0.00,WUHU216HW,2013-04-04 07:04:00,
2013-04-04 03:07:00,26.6,13.8,30.15,NNE,23,1.3,1.8,58,0.00,,,0.00,WUHU216HW,2013-04-04 07:07:00,
2013-04-04 03:08:00,26.6,13.8,30.15,NNE,23,1.3,1.8,58,0.00,,,0.00,WUHU216HW,2013-04-04 07:08:00,
2013-04-04 03:10:00,26.5,13.6,30.15,NNW,338,1.1,1.8,58,0.00,,,0.00,WUHU216HW,2013-04-04 07:10:00,
2013-04-04 03:12:00,26.3,13.4,30.15,NNE,23,1.1,1.8,58,0.00,,,0.00,WUHU216HW,2013-04-04 07:12:00,
2013-04-04 03:13:00,26.3,13.9,30.15,North,0,0.4,1.8,59,0.00,,,0.00,WUHU216HW,2013-04-04 07:13:00,
2013-04-04 03:14:00,26.3,13.9,30.15,North,0,0.4,1.8,59,0.00,,,0.00,WUHU216HW,2013-04-04 07:14:00,
2013-04-04 03:15:00,26.3,13.9,30.15,SSE,158,1.8,1.8,59,0.00,,,0.00,WUHU216HW,2013-04-04 07:15:00,
2013-04-04 03:17:00,26.1,14.5,30.15,South,180,2.0,2.5,61,0.00,,,0.00,WUHU216HW,2013-04-04 07:17:00,
2013-04-04 03:19:00,25.9,14.3,30.15,South,180,1.1,2.5,61,0.00,,,0.00,WUHU216HW,2013-04-04 07:19:00,
2013-04-04 03:20:00,25.6,13.6,30.15,NNE,23,0.4,2.5,60,0.00,,,0.00,WUHU216HW,2013-04-04 07:20:00,
2013-04-04 03:24:00,25.4,13.8,30.15,SSE,158,0.0,2.5,61,0.00,,,0.00,WUHU216HW,2013-04-04 07:24:00,
2013-04-04 03:25:00,25.2,14.7,30.16,SSE,158,2.7,2.7,64,0.00,,,0.00,WUHU216HW,2013-04-04 07:25:00,
2013-04-04 03:29:00,24.8,14.0,30.16,ESE,113,0.4,2.7,63,0.00,,,0.00,WUHU216HW,2013-04-04 07:29:00,
2013-04-04 03:30:00,24.8,13.7,30.16,ESE,113,1.3,2.7,62,0.00,,,0.00,WUHU216HW,2013-04-04 07:30:00,
2013-04-04 03:34:00,24.8,13.7,30.16,SE,135,1.1,2.7,62,0.00,,,0.00,WUHU216HW,2013-04-04 07:34:00,
2013-04-04 03:35:00,24.8,14.0,30.16,SE,135,2.0,2.5,63,0.00,,,0.00,WUHU216HW,2013-04-04 07:35:00,
2013-04-04 03:36:00,24.8,14.0,30.16,SE,135,2.0,2.0,63,0.00,,,0.00,WUHU216HW,2013-04-04 07:36:00,
2013-04-04 03:39:00,24.8,14.7,30.15,North,0,2.5,2.5,65,0.00,,,0.00,WUHU216HW,2013-04-04 07:39:00,
2013-04-04 03:41:00,24.8,14.7,30.15,North,0,0.9,2.5,65,0.00,,,0.00,WUHU216HW,2013-04-04 07:41:00,
2013-04-04 03:44:00,24.8,14.3,30.15,East,90,0.4,2.5,64,0.00,,,0.00,WUHU216HW,2013-04-04 07:44:00,
2013-04-04 03:46:00,24.8,14.7,30.15,East,90,0.7,2.5,65,0.00,,,0.00,WUHU216HW,2013-04-04 07:46:00,
2013-04-04 03:47:00,24.8,14.3,30.15,ESE,113,0.0,2.5,64,0.00,,,0.00,WUHU216HW,2013-04-04 07:47:00,
2013-04-04 03:49:00,24.8,14.3,30.15,SE,135,0.4,2.5,64,0.00,,,0.00,WUHU216HW,2013-04-04 07:49:00,
2013-04-04 03:52:00,25.0,14.9,30.16,SSE,158,1.1,1.3,65,0.00,,,0.00,WUHU216HW,2013-04-04 07:52:00,
2013-04-04 03:54:00,25.0,14.5,30.15,NE,45,3.1,3.1,64,0.00,,,0.00,WUHU216HW,2013-04-04 07:54:00,
2013-04-04 03:57:00,25.0,14.9,30.15,NNE,23,0.4,3.1,65,0.00,,,0.00,WUHU216HW,2013-04-04 07:57:00,
2013-04-04 03:58:00,25.0,14.5,30.15,NNE,23,0.4,3.1,64,0.00,,,0.00,WUHU216HW,2013-04-04 07:58:00,
2013-04-04 03:59:00,25.0,14.5,30.15,ESE,113,1.6,3.1,64,0.00,,,0.00,WUHU216HW,2013-04-04 07:59:00,
2013-04-04 04:02:00,25.2,15.0,30.15,NNE,23,2.0,3.1,65,0.00,,,0.00,WUHU216HW,2013-04-04 08:02:00,
2013-04-04 04:03:00,25.2,15.0,30.15,NE,45,1.8,3.1,65,0.00,,,0.00,WUHU216HW,2013-04-04 08:03:00,
2013-04-04 04:05:00,25.4,14.9,30.15,North,0,1.6,2.2,64,0.00,,,0.00,WUHU216HW,2013-04-04 08:05:00,
2013-04-04 04:07:00,25.4,14.9,30.15,North,0,0.2,2.2,64,0.00,,,0.00,WUHU216HW,2013-04-04 08:07:00,
2013-04-04 04:08:00,25.4,14.9,30.15,North,0,0.0,2.2,64,0.00,,,0.00,WUHU216HW,2013-04-04 08:08:00,
2013-04-04 04:10:00,25.4,14.9,30.15,NNE,23,2.0,2.0,64,0.00,,,0.00,WUHU216HW,2013-04-04 08:10:00,
2013-04-04 04:13:00,25.4,14.9,30.15,NNE,23,0.4,2.0,64,0.00,,,0.00,WUHU216HW,2013-04-04 08:13:00,
2013-04-04 04:16:00,25.4,14.5,30.15,ESE,113,0.7,2.0,63,0.00,,,0.00,WUHU216HW,2013-04-04 08:16:00,
2013-04-04 04:17:00,25.2,14.3,30.15,SE,135,1.6,2.0,63,0.00,,,0.00,WUHU216HW,2013-04-04 08:17:00,
2013-04-04 04:20:00,25.2,14.3,30.15,East,90,1.3,1.8,63,0.00,,,0.00,WUHU216HW,2013-04-04 08:20:00,
2013-04-04 04:21:00,25.0,14.5,30.15,ESE,113,1.8,2.0,64,0.00,,,0.00,WUHU216HW,2013-04-04 08:21:00,
2013-04-04 04:22:00,25.0,14.5,30.15,ESE,113,1.6,2.0,64,0.00,,,0.00,WUHU216HW,2013-04-04 08:22:00,
2013-04-04 04:25:00,25.0,14.5,30.15,SE,135,0.7,2.0,64,0.00,,,0.00,WUHU216HW,2013-04-04 08:25:00,
2013-04-04 04:27:00,25.0,14.5,30.15,SE,135,0.0,2.0,64,0.00,,,0.00,WUHU216HW,2013-04-04 08:27:00,
2013-04-04 04:28:00,24.8,14.3,30.15,SE,135,0.9,2.0,64,0.00,,,0.00,WUHU216HW,2013-04-04 08:28:00,
2013-04-04 04:32:00,24.8,14.0,30.16,ESE,113,0.4,0.9,63,0.00,,,0.00,WUHU216HW,2013-04-04 08:32:00,
2013-04-04 04:33:00,24.8,14.0,30.16,ESE,113,0.4,0.9,63,0.00,,,0.00,WUHU216HW,2013-04-04 08:33:00,
2013-04-04 04:34:00,24.8,14.0,30.16,ESE,113,0.0,0.9,63,0.00,,,0.00,WUHU216HW,2013-04-04 08:34:00,
2013-04-04 04:37:00,24.8,14.0,30.16,ESE,113,0.0,0.9,63,0.00,,,0.00,WUHU216HW,2013-04-04 08:37:00,
2013-04-04 04:38:00,24.8,14.0,30.16,ESE,113,0.0,0.9,63,0.00,,,0.00,WUHU216HW,2013-04-04 08:38:00,
2013-04-04 04:39:00,24.8,14.3,30.16,SE,135,0.0,0.4,64,0.00,,,0.00,WUHU216HW,2013-04-04 08:39:00,
2013-04-04 04:43:00,24.8,14.0,30.16,North,0,0.4,0.4,63,0.00,,,0.00,WUHU216HW,2013-04-04 08:43:00,
2013-04-04 04:44:00,24.8,14.0,30.16,North,0,0.2,0.4,63,0.00,,,0.00,WUHU216HW,2013-04-04 08:44:00,
2013-04-04 04:45:00,24.8,14.0,30.16,NNE,23,0.4,0.4,63,0.00,,,0.00,WUHU216HW,2013-04-04 08:45:00,
2013-04-04 04:48:00,25.0,14.1,30.16,East,90,0.0,0.4,63,0.00,,,0.00,WUHU216HW,2013-04-04 08:48:00,
2013-04-04 04:49:00,25.0,14.1,30.16,NE,45,0.0,0.4,63,0.00,,,0.00,WUHU216HW,2013-04-04 08:49:00,
2013-04-04 04:50:00,25.0,14.1,30.16,North,0,0.0,0.4,63,0.00,,,0.00,WUHU216HW,2013-04-04 08:50:00,
2013-04-04 04:51:00,25.0,14.1,30.16,North,0,0.0,0.4,63,0.00,,,0.00,WUHU216HW,2013-04-04 08:51:00,
2013-04-04 04:54:00,25.0,14.1,30.16,NNE,23,0.0,0.4,63,0.00,,,0.00,WUHU216HW,2013-04-04 08:54:00,
2013-04-04 04:56:00,25.0,14.1,30.16,NNE,23,0.0,0.0,63,0.00,,,0.00,WUHU216HW,2013-04-04 08:56:00,
2013-04-04 04:57:00,25.2,14.3,30.16,NNE,23,0.4,0.4,63,0.00,,,0.00,WUHU216HW,2013-04-04 08:57:00,
2013-04-04 05:00:00,25.2,14.7,30.16,NNE,23,0.0,0.7,64,0.00,,,0.00,WUHU216HW,2013-04-04 09:00:00,
2013-04-04 05:01:00,25.2,14.3,30.16,East,90,0.7,0.7,63,0.00,,,0.00,WUHU216HW,2013-04-04 09:01:00,
2013-04-04 05:02:00,25.2,14.3,30.15,NNE,23,1.1,1.1,63,0.00,,,0.00,WUHU216HW,2013-04-04 09:02:00,
2013-04-04 05:05:00,25.2,14.7,30.15,North,0,0.4,1.1,64,0.00,,,0.00,WUHU216HW,2013-04-04 09:05:00,
2013-04-04 05:07:00,25.2,14.3,30.16,North,0,0.0,1.1,63,0.00,,,0.00,WUHU216HW,2013-04-04 09:07:00,
2013-04-04 05:08:00,25.0,14.5,30.16,SSE,158,0.7,1.1,64,0.00,,,0.00,WUHU216HW,2013-04-04 09:08:00,
2013-04-04 05:10:00,25.0,15.2,30.16,SSE,158,0.2,1.1,66,0.00,,,0.00,WUHU216HW,2013-04-04 09:10:00,
2013-04-04 05:12:00,24.8,14.7,30.15,SSW,203,0.0,1.1,65,0.00,,,0.00,WUHU216HW,2013-04-04 09:12:00,
2013-04-04 05:14:00,24.8,15.0,30.15,SSW,203,0.4,0.9,66,0.00,,,0.00,WUHU216HW,2013-04-04 09:14:00,
2013-04-04 05:15:00,24.7,15.2,30.16,SSW,203,1.1,1.1,67,0.00,,,0.00,WUHU216HW,2013-04-04 09:15:00,
2013-04-04 05:18:00,24.5,15.0,30.16,SSW,203,0.7,1.1,67,0.00,,,0.00,WUHU216HW,2013-04-04 09:18:00,
2013-04-04 05:19:00,24.5,15.4,30.16,SW,225,1.1,1.1,68,0.00,,,0.00,WUHU216HW,2013-04-04 09:19:00,
2013-04-04 05:20:00,24.5,15.4,30.16,SW,225,1.1,1.1,68,0.00,,,0.00,WUHU216HW,2013-04-04 09:20:00,
2013-04-04 05:21:00,24.3,15.2,30.16,SW,225,0.9,1.1,68,0.00,,,0.00,WUHU216HW,2013-04-04 09:21:00,
2013-04-04 05:25:00,24.3,14.5,30.15,SW,225,0.0,1.1,66,0.00,,,0.00,WUHU216HW,2013-04-04 09:25:00,
2013-04-04 05:26:00,24.5,15.0,30.16,SSW,203,0.9,1.1,67,0.00,,,0.00,WUHU216HW,2013-04-04 09:26:00,
2013-04-04 05:30:00,24.5,15.0,30.16,SW,225,0.9,1.3,67,0.00,,,0.00,WUHU216HW,2013-04-04 09:30:00,
2013-04-04 05:32:00,24.3,14.5,30.16,WSW,248,0.7,1.3,66,0.00,,,0.00,WUHU216HW,2013-04-04 09:32:00,
2013-04-04 05:35:00,24.3,14.5,30.16,SW,225,0.4,1.3,66,0.00,,,0.00,WUHU216HW,2013-04-04 09:35:00,
2013-04-04 05:37:00,24.5,14.7,30.16,SW,225,0.0,1.1,66,0.00,,,0.00,WUHU216HW,2013-04-04 09:37:00,
2013-04-04 05:38:00,24.3,14.5,30.16,SW,225,0.0,1.1,66,0.00,,,0.00,WUHU216HW,2013-04-04 09:38:00,
2013-04-04 05:41:00,24.5,14.3,30.16,SW,225,0.0,1.1,65,0.00,,,0.00,WUHU216HW,2013-04-04 09:41:00,
2013-04-04 05:43:00,24.7,14.5,30.16,WSW,248,0.0,0.4,65,0.00,,,0.00,WUHU216HW,2013-04-04 09:43:00,
2013-04-04 05:44:00,24.7,14.5,30.16,WSW,248,0.0,0.4,65,0.00,,,0.00,WUHU216HW,2013-04-04 09:44:00,
2013-04-04 05:48:00,24.7,14.5,30.16,SW,225,0.4,0.4,65,0.00,,,0.00,WUHU216HW,2013-04-04 09:48:00,
2013-04-04 05:49:00,24.8,14.3,30.16,SW,225,0.4,0.4,64,0.00,,,0.00,WUHU216HW,2013-04-04 09:49:00,
2013-04-04 05:50:00,24.8,14.3,30.16,SW,225,0.4,0.4,64,0.00,,,0.00,WUHU216HW,2013-04-04 09:50:00,
2013-04-04 05:54:00,24.8,14.3,30.16,SSW,203,0.0,0.4,64,0.00,,,0.00,WUHU216HW,2013-04-04 09:54:00,
2013-04-04 05:55:00,24.8,14.7,30.16,SW,225,0.9,0.9,65,0.00,,,0.00,WUHU216HW,2013-04-04 09:55:00,
2013-04-04 05:59:00,24.8,14.7,30.15,WNW,293,0.7,1.1,65,0.00,,,0.00,WUHU216HW,2013-04-04 09:59:00,
2013-04-04 06:00:00,24.8,14.7,30.15,WNW,293,0.4,1.1,65,0.00,,,0.00,WUHU216HW,2013-04-04 10:00:00,
2013-04-04 06:03:00,24.8,14.3,30.15,NW,315,0.0,1.1,64,0.00,,,0.00,WUHU216HW,2013-04-04 10:03:00,
2013-04-04 06:04:00,24.8,14.3,30.15,NW,315,0.0,1.1,64,0.00,,,0.00,WUHU216HW,2013-04-04 10:04:00,
2013-04-04 06:05:00,24.8,14.3,30.15,NW,315,0.0,0.9,64,0.00,,,0.00,WUHU216HW,2013-04-04 10:05:00,
2013-04-04 06:06:00,24.8,14.3,30.15,NW,315,0.0,0.9,64,0.00,,,0.00,WUHU216HW,2013-04-04 10:06:00,
2013-04-04 06:10:00,24.8,14.3,30.15,NW,315,0.0,0.7,64,0.00,,,0.00,WUHU216HW,2013-04-04 10:10:00,
2013-04-04 06:11:00,24.8,14.3,30.15,NW,315,0.0,0.7,64,0.00,,,0.00,WUHU216HW,2013-04-04 10:11:00,
2013-04-04 06:13:00,24.8,14.0,30.15,NNW,338,0.4,0.4,63,0.00,,,0.00,WUHU216HW,2013-04-04 10:13:00,
2013-04-04 06:16:00,24.8,14.0,30.15,NNW,338,0.0,0.4,63,0.00,,,0.00,WUHU216HW,2013-04-04 10:16:00,
2013-04-04 06:17:00,24.8,14.0,30.15,NNW,338,0.0,0.4,63,0.00,,,0.00,WUHU216HW,2013-04-04 10:17:00,
2013-04-04 06:19:00,24.8,14.0,30.14,NNW,338,0.0,0.4,63,0.00,,,0.00,WUHU216HW,2013-04-04 10:19:00,
2013-04-04 06:21:00,25.0,14.1,30.14,NNW,338,0.0,0.4,63,0.00,,,0.00,WUHU216HW,2013-04-04 10:21:00,
2013-04-04 06:22:00,25.0,13.8,30.14,NNW,338,0.9,0.9,62,0.00,,,0.00,WUHU216HW,2013-04-04 10:22:00,
2013-04-04 06:24:00,25.0,13.8,30.14,NNW,338,0.4,1.1,62,0.00,,,0.00,WUHU216HW,2013-04-04 10:24:00,
2013-04-04 06:26:00,25.0,13.8,30.14,NNW,338,0.7,1.1,62,0.00,,,0.00,WUHU216HW,2013-04-04 10:26:00,
2013-04-04 06:27:00,25.0,13.8,30.14,NNW,338,0.0,1.1,62,0.00,,,0.00,WUHU216HW,2013-04-04 10:27:00,
2013-04-04 06:30:00,25.2,14.0,30.14,NNW,338,0.0,1.1,62,0.00,,,0.00,WUHU216HW,2013-04-04 10:30:00,
2013-04-04 06:31:00,25.2,14.0,30.14,NNW,338,0.0,1.1,62,0.00,,,0.00,WUHU216HW,2013-04-04 10:31:00,
2013-04-04 06:32:00,25.2,14.3,30.14,NNW,338,0.0,1.1,63,0.00,,,0.00,WUHU216HW,2013-04-04 10:32:00,
2013-04-04 06:35:00,25.2,14.0,30.15,NNW,338,0.0,0.4,62,0.00,,,0.00,WUHU216HW,2013-04-04 10:35:00,
2013-04-04 06:36:00,25.2,14.0,30.15,NNW,338,0.0,0.0,62,0.00,,,0.00,WUHU216HW,2013-04-04 10:36:00,
2013-04-04 06:37:00,25.2,14.0,30.15,NNW,338,0.0,0.0,62,0.00,,,0.00,WUHU216HW,2013-04-04 10:37:00,
2013-04-04 06:38:00,25.2,14.0,30.15,NNW,338,0.0,0.0,62,0.00,,,0.00,WUHU216HW,2013-04-04 10:38:00,
2013-04-04 06:41:00,25.0,14.1,30.15,NNW,338,0.0,0.0,63,0.00,,,0.00,WUHU216HW,2013-04-04 10:41:00,
2013-04-04 06:42:00,25.0,14.5,30.15,NNW,338,0.0,0.0,64,0.00,,,0.00,WUHU216HW,2013-04-04 10:42:00,
2013-04-04 06:43:00,25.0,14.5,30.15,NNW,338,0.0,0.0,64,0.00,,,0.00,WUHU216HW,2013-04-04 10:43:00,
2013-04-04 06:46:00,24.8,14.0,30.15,NNW,338,0.0,0.0,63,0.00,,,0.00,WUHU216HW,2013-04-04 10:46:00,
2013-04-04 06:47:00,24.8,14.0,30.15,NNW,338,0.0,0.0,63,0.00,,,0.00,WUHU216HW,2013-04-04 10:47:00,
2013-04-04 06:48:00,24.8,14.0,30.15,NNW,338,0.0,0.0,63,0.00,,,0.00,WUHU216HW,2013-04-04 10:48:00,
2013-04-04 06:51:00,24.8,14.3,30.15,NNW,338,0.0,0.0,64,0.00,,,0.00,WUHU216HW,2013-04-04 10:51:00,
2013-04-04 06:52:00,24.8,14.0,30.15,NNW,338,0.0,0.0,63,0.00,,,0.00,WUHU216HW,2013-04-04 10:52:00,
2013-04-04 06:53:00,24.8,14.0,30.15,NNW,338,0.0,0.0,63,0.00,,,0.00,WUHU216HW,2013-04-04 10:53:00,
2013-04-04 06:57:00,25.0,14.5,30.15,West,270,0.0,0.0,64,0.00,,,0.00,WUHU216HW,2013-04-04 10:57:00,
2013-04-04 06:58:00,25.0,14.5,30.15,WSW,248,0.0,0.0,64,0.00,,,0.00,WUHU216HW,2013-04-04 10:58:00,
2013-04-04 06:59:00,25.0,14.5,30.15,WSW,248,0.0,0.0,64,0.00,,,0.00,WUHU216HW,2013-04-04 10:59:00,
2013-04-04 07:02:00,25.0,14.5,30.15,SW,225,0.2,0.2,64,0.00,,,0.00,WUHU216HW,2013-04-04 11:02:00,
2013-04-04 07:03:00,25.0,14.5,30.15,SSW,203,1.1,1.1,64,0.00,,,0.00,WUHU216HW,2013-04-04 11:03:00,
2013-04-04 07:04:00,25.0,14.9,30.16,SSW,203,1.3,1.3,65,0.00,,,0.00,WUHU216HW,2013-04-04 11:04:00,
2013-04-04 07:08:00,24.8,15.4,30.16,SSW,203,0.9,1.3,67,0.00,,,0.00,WUHU216HW,2013-04-04 11:08:00,
2013-04-04 07:09:00,24.7,15.2,30.16,SSW,203,1.1,1.3,67,0.00,,,0.00,WUHU216HW,2013-04-04 11:09:00,
2013-04-04 07:10:00,24.7,15.2,30.16,SSW,203,1.8,1.8,67,0.00,,,0.00,WUHU216HW,2013-04-04 11:10:00,
2013-04-04 07:13:00,24.3,15.6,30.16,SSW,203,1.3,2.0,69,0.00,,,0.00,WUHU216HW,2013-04-04 11:13:00,
2013-04-04 07:14:00,24.3,15.6,30.16,SSW,203,1.3,2.0,69,0.00,,,0.00,WUHU216HW,2013-04-04 11:14:00,
2013-04-04 07:16:00,24.5,15.4,30.16,SSW,203,2.5,2.5,68,0.00,,,0.00,WUHU216HW,2013-04-04 11:16:00,
2013-04-04 07:19:00,24.7,15.8,30.16,SW,225,3.1,3.4,69,0.00,,,0.00,WUHU216HW,2013-04-04 11:19:00,
2013-04-04 07:20:00,24.7,15.8,30.16,SW,225,3.1,3.4,69,0.00,,,0.00,WUHU216HW,2013-04-04 11:20:00,
2013-04-04 07:21:00,24.8,15.7,30.16,SW,225,2.7,3.4,68,0.00,,,0.00,WUHU216HW,2013-04-04 11:21:00,
2013-04-04 07:24:00,25.2,16.0,30.16,SW,225,2.0,3.4,68,0.00,,,0.00,WUHU216HW,2013-04-04 11:24:00,
2013-04-04 07:25:00,25.2,16.0,30.16,SW,225,2.0,3.4,68,0.00,,,0.00,WUHU216HW,2013-04-04 11:25:00,
2013-04-04 07:26:00,25.0,15.8,30.16,WSW,248,1.6,3.4,68,0.00,,,0.00,WUHU216HW,2013-04-04 11:26:00,
2013-04-04 07:27:00,25.2,15.7,30.16,West,270,0.7,3.4,67,0.00,,,0.00,WUHU216HW,2013-04-04 11:27:00,
2013-04-04 07:29:00,25.2,15.7,30.16,WNW,293,0.4,2.9,67,0.00,,,0.00,WUHU216HW,2013-04-04 11:29:00,
2013-04-04 07:30:00,25.2,15.7,30.16,NW,315,0.4,2.9,67,0.00,,,0.00,WUHU216HW,2013-04-04 11:30:00,
2013-04-04 07:32:00,25.4,15.8,30.16,WSW,248,1.1,2.5,67,0.00,,,0.00,WUHU216HW,2013-04-04 11:32:00,
2013-04-04 07:34:00,25.6,15.7,30.16,SSW,203,0.2,1.8,66,0.00,,,0.00,WUHU216HW,2013-04-04 11:34:00,
2013-04-04 07:35:00,25.6,15.7,30.16,SSW,203,0.2,1.8,66,0.00,,,0.00,WUHU216HW,2013-04-04 11:35:00,
2013-04-04 07:38:00,25.7,16.6,30.16,SSW,203,0.4,1.1,68,0.00,,,0.00,WUHU216HW,2013-04-04 11:38:00,
2013-04-04 07:40:00,25.6,16.7,30.16,SW,225,2.2,2.2,69,0.00,,,0.00,WUHU216HW,2013-04-04 11:40:00,
2013-04-04 07:43:00,25.6,16.4,30.16,WSW,248,1.6,2.2,68,0.00,,,0.00,WUHU216HW,2013-04-04 11:43:00,
2013-04-04 07:45:00,25.9,16.7,30.16,WNW,293,1.8,2.2,68,0.00,,,0.00,WUHU216HW,2013-04-04 11:45:00,
2013-04-04 07:47:00,26.1,16.6,30.16,West,270,2.0,2.2,67,0.00,,,0.00,WUHU216HW,2013-04-04 11:47:00,
2013-04-04 07:48:00,26.1,16.6,30.16,WSW,248,2.2,2.2,67,0.00,,,0.00,WUHU216HW,2013-04-04 11:48:00,
2013-04-04 07:50:00,26.3,16.4,30.17,West,270,1.8,2.2,66,0.00,,,0.00,WUHU216HW,2013-04-04 11:50:00,
2013-04-04 07:52:00,26.5,16.6,30.17,WSW,248,2.5,2.5,66,0.00,,,0.00,WUHU216HW,2013-04-04 11:52:00,
2013-04-04 07:53:00,26.6,16.7,30.17,SW,225,0.9,2.5,66,0.00,,,0.00,WUHU216HW,2013-04-04 11:53:00,
2013-04-04 07:55:00,26.6,17.1,30.17,SW,225,2.5,2.5,67,0.00,,,0.00,WUHU216HW,2013-04-04 11:55:00,
2013-04-04 07:57:00,27.0,18.5,30.18,SW,225,2.7,2.7,70,0.00,,,0.00,WUHU216HW,2013-04-04 11:57:00,
2013-04-04 07:58:00,27.0,18.5,30.18,SW,225,1.6,2.7,70,0.00,,,0.00,WUHU216HW,2013-04-04 11:58:00,
2013-04-04 08:00:00,27.0,18.5,30.17,WSW,248,1.1,2.7,70,0.00,,,0.00,WUHU216HW,2013-04-04 12:00:00,
2013-04-04 08:02:00,27.0,18.5,30.17,SW,225,0.4,2.7,70,0.00,,,0.00,WUHU216HW,2013-04-04 12:02:00,
2013-04-04 08:03:00,27.2,18.7,30.17,SSW,203,0.4,2.7,70,0.00,,,0.00,WUHU216HW,2013-04-04 12:03:00,
2013-04-04 08:06:00,27.5,19.4,30.18,South,180,0.4,2.7,71,0.00,,,0.00,WUHU216HW,2013-04-04 12:06:00,
2013-04-04 08:07:00,27.5,19.1,30.17,South,180,0.9,1.6,70,0.00,,,0.00,WUHU216HW,2013-04-04 12:07:00,
2013-04-04 08:09:00,27.7,18.9,30.17,South,180,0.7,1.1,69,0.00,,,0.00,WUHU216HW,2013-04-04 12:09:00,
2013-04-04 08:10:00,27.5,18.0,30.17,SSW,203,1.1,1.1,67,0.00,,,0.00,WUHU216HW,2013-04-04 12:10:00,
2013-04-04 08:12:00,27.7,17.8,30.17,South,180,1.8,1.8,66,0.00,,,0.00,WUHU216HW,2013-04-04 12:12:00,
2013-04-04 08:15:00,27.5,18.0,30.17,SW,225,2.5,2.5,67,0.00,,,0.00,WUHU216HW,2013-04-04 12:15:00,
2013-04-04 08:17:00,27.7,18.9,30.18,SSW,203,3.6,3.6,69,0.00,,,0.00,WUHU216HW,2013-04-04 12:17:00,
2013-04-04 08:19:00,27.7,19.3,30.18,SSW,203,3.6,3.6,70,0.00,,,0.00,WUHU216HW,2013-04-04 12:19:00,
2013-04-04 08:22:00,27.9,19.4,30.18,SSW,203,3.4,4.0,70,0.00,,,0.00,WUHU216HW,2013-04-04 12:22:00,
2013-04-04 08:24:00,28.1,19.6,30.18,SSW,203,2.5,4.0,70,0.00,,,0.00,WUHU216HW,2013-04-04 12:24:00,
2013-04-04 08:27:00,28.1,19.3,30.18,SSW,203,2.5,4.0,69,0.00,,,0.00,WUHU216HW,2013-04-04 12:27:00,
2013-04-04 08:29:00,28.4,19.3,30.18,SSW,203,2.9,3.8,68,0.00,,,0.00,WUHU216HW,2013-04-04 12:29:00,
2013-04-04 08:33:00,28.6,20.2,30.18,SSW,203,2.7,2.9,70,0.00,,,0.00,WUHU216HW,2013-04-04 12:33:00,
2013-04-04 08:34:00,28.8,19.3,30.17,SSW,203,2.7,2.9,67,0.00,,,0.00,WUHU216HW,2013-04-04 12:34:00,
2013-04-04 08:36:00,28.8,19.3,30.17,SSW,203,2.9,3.4,67,0.00,,,0.00,WUHU216HW,2013-04-04 12:36:00,
2013-04-04 08:38:00,29.0,19.4,30.17,SSW,203,3.4,3.4,67,0.00,,,0.00,WUHU216HW,2013-04-04 12:38:00,
2013-04-04 08:40:00,29.0,19.4,30.17,SSW,203,3.8,3.8,67,0.00,,,0.00,WUHU216HW,2013-04-04 12:40:00,
2013-04-04 08:43:00,29.2,19.5,30.18,South,180,2.9,3.8,67,0.00,,,0.00,WUHU216HW,2013-04-04 12:43:00,
2013-04-04 08:44:00,29.2,19.5,30.18,South,180,2.9,3.8,67,0.00,,,0.00,WUHU216HW,2013-04-04 12:44:00,
2013-04-04 08:45:00,29.5,19.5,30.18,SSW,203,2.5,3.8,66,0.00,,,0.00,WUHU216HW,2013-04-04 12:45:00,
2013-04-04 08:49:00,29.7,19.7,30.18,SSW,203,3.6,3.8,66,0.00,,,0.00,WUHU216HW,2013-04-04 12:49:00,
2013-04-04 08:50:00,29.7,19.4,30.18,SSW,203,3.4,3.6,65,0.00,,,0.00,WUHU216HW,2013-04-04 12:50:00,
2013-04-04 08:54:00,30.1,20.0,30.18,South,180,3.8,3.8,66,0.00,,,0.00,WUHU216HW,2013-04-04 12:54:00,
2013-04-04 08:55:00,30.1,20.0,30.18,South,180,3.8,3.8,66,0.00,,,0.00,WUHU216HW,2013-04-04 12:55:00,
2013-04-04 08:56:00,30.2,20.2,30.18,SSE,158,2.7,3.8,66,0.00,,,0.00,WUHU216HW,2013-04-04 12:56:00,
2013-04-04 09:00:00,30.6,19.1,30.18,SSW,203,2.5,4.0,62,0.00,,,0.00,WUHU216HW,2013-04-04 13:00:00,
2013-04-04 09:02:00,30.8,18.9,30.18,SW,225,2.9,4.0,61,0.00,,,0.00,WUHU216HW,2013-04-04 13:02:00,
2013-04-04 09:05:00,31.1,18.9,30.18,SSW,203,4.0,4.0,60,0.00,,,0.00,WUHU216HW,2013-04-04 13:05:00,
2013-04-04 09:06:00,31.1,18.9,30.18,SSW,203,4.0,4.0,60,0.00,,,0.00,WUHU216HW,2013-04-04 13:06:00,
2013-04-04 09:08:00,31.3,18.3,30.17,South,180,4.0,4.0,58,0.00,,,0.00,WUHU216HW,2013-04-04 13:08:00,
2013-04-04 09:10:00,31.3,18.6,30.17,SSE,158,3.1,4.0,59,0.00,,,0.00,WUHU216HW,2013-04-04 13:10:00,
2013-04-04 09:11:00,31.5,19.6,30.17,SSE,158,2.0,4.0,61,0.00,,,0.00,WUHU216HW,2013-04-04 13:11:00,
2013-04-04 09:12:00,31.7,19.8,30.17,South,180,2.7,4.0,61,0.00,,,0.00,WUHU216HW,2013-04-04 13:12:00,
2013-04-04 09:13:00,32.0,20.2,30.17,SW,225,2.5,4.0,61,0.00,,,0.00,WUHU216HW,2013-04-04 13:13:00,
2013-04-04 09:17:00,32.2,19.5,30.18,SW,225,5.1,5.1,59,0.00,,,0.00,WUHU216HW,2013-04-04 13:17:00,
2013-04-04 09:19:00,32.4,19.3,30.18,SW,225,5.4,5.4,58,0.00,,,0.00,WUHU216HW,2013-04-04 13:19:00,
2013-04-04 09:22:00,33.1,19.9,30.18,SSW,203,5.6,5.6,58,0.00,,,0.00,WUHU216HW,2013-04-04 13:22:00,
2013-04-04 09:24:00,33.3,20.1,30.17,SW,225,5.8,5.8,58,0.00,,,0.00,WUHU216HW,2013-04-04 13:24:00,
2013-04-04 09:25:00,33.3,20.1,30.17,SW,225,5.8,5.8,58,0.00,,,0.00,WUHU216HW,2013-04-04 13:25:00,
2013-04-04 09:28:00,33.3,19.2,30.17,South,180,4.0,6.9,56,0.00,,,0.00,WUHU216HW,2013-04-04 13:28:00,
2013-04-04 09:29:00,33.5,18.9,30.17,SW,225,4.7,6.9,55,0.00,,,0.00,WUHU216HW,2013-04-04 13:29:00,
2013-04-04 09:30:00,33.5,19.4,30.17,SW,225,8.3,8.3,56,0.00,,,0.00,WUHU216HW,2013-04-04 13:30:00,
2013-04-04 09:33:00,33.5,19.4,30.17,SSW,203,6.3,8.3,56,0.00,,,0.00,WUHU216HW,2013-04-04 13:33:00,
2013-04-04 09:34:00,33.5,18.1,30.17,South,180,7.8,8.3,53,0.00,,,0.00,WUHU216HW,2013-04-04 13:34:00,
2013-04-04 09:35:00,33.5,18.1,30.17,SW,225,6.3,8.3,53,0.00,,,0.00,WUHU216HW,2013-04-04 13:35:00,
2013-04-04 09:36:00,33.5,18.9,30.17,WSW,248,8.5,8.5,55,0.00,,,0.00,WUHU216HW,2013-04-04 13:36:00,
2013-04-04 09:38:00,33.5,18.6,30.17,SW,225,6.9,8.9,54,0.00,,,0.00,WUHU216HW,2013-04-04 13:38:00,
2013-04-04 09:39:00,33.5,19.4,30.17,SSW,203,6.0,8.9,56,0.00,,,0.00,WUHU216HW,2013-04-04 13:39:00,
2013-04-04 09:40:00,33.5,18.9,30.17,SSE,158,4.7,8.9,55,0.00,,,0.00,WUHU216HW,2013-04-04 13:40:00,
2013-04-04 09:42:00,33.5,19.8,30.17,SSW,203,5.6,8.9,57,0.00,,,0.00,WUHU216HW,2013-04-04 13:42:00,
2013-04-04 09:45:00,33.8,19.7,30.17,SW,225,5.8,8.9,56,0.00,,,0.00,WUHU216HW,2013-04-04 13:45:00,
2013-04-04 09:47:00,34.0,19.9,30.17,SSW,203,7.4,7.4,56,0.00,,,0.00,WUHU216HW,2013-04-04 13:47:00,
2013-04-04 09:50:00,34.2,19.2,30.17,SSW,203,7.6,7.6,54,0.00,,,0.00,WUHU216HW,2013-04-04 13:50:00,
2013-04-04 09:51:00,34.2,19.2,30.17,SSW,203,7.6,7.6,54,0.00,,,0.00,WUHU216HW,2013-04-04 13:51:00,
2013-04-04 09:53:00,34.2,19.2,30.17,SSW,203,6.5,8.7,54,0.00,,,0.00,WUHU216HW,2013-04-04 13:53:00,
2013-04-04 09:55:00,34.6,19.1,30.16,SSW,203,7.6,9.2,53,0.00,,,0.00,WUHU216HW,2013-04-04 13:55:00,
2013-04-04 09:56:00,34.6,19.1,30.16,SSW,203,6.9,9.2,53,0.00,,,0.00,WUHU216HW,2013-04-04 13:56:00,
2013-04-04 09:57:00,34.6,18.3,30.16,SW,225,10.3,10.3,51,0.00,,,0.00,WUHU216HW,2013-04-04 13:57:00,
2013-04-04 10:00:00,34.7,17.0,30.16,South,180,7.8,10.3,48,0.00,,,0.00,WUHU216HW,2013-04-04 14:00:00,
2013-04-04 10:02:00,34.9,18.6,30.16,SW,225,8.7,10.3,51,0.00,,,0.00,WUHU216HW,2013-04-04 14:02:00,
2013-04-04 10:05:00,34.9,18.2,30.16,South,180,9.8,10.3,50,0.00,,,0.00,WUHU216HW,2013-04-04 14:05:00,
2013-04-04 10:07:00,34.7,17.5,30.16,South,180,8.5,9.8,49,0.00,,,0.00,WUHU216HW,2013-04-04 14:07:00,
2013-04-04 10:08:00,34.9,18.6,30.16,SW,225,11.0,11.0,51,0.00,,,0.00,WUHU216HW,2013-04-04 14:08:00,
2013-04-04 10:10:00,35.5,18.7,30.16,SW,225,9.6,11.0,50,0.00,,,0.00,WUHU216HW,2013-04-04 14:10:00,
2013-04-04 10:12:00,35.6,18.9,30.16,SW,225,9.4,11.0,50,0.00,,,0.00,WUHU216HW,2013-04-04 14:12:00,
2013-04-04 10:14:00,35.6,19.8,30.16,SSW,203,8.3,11.0,52,0.00,,,0.00,WUHU216HW,2013-04-04 14:14:00,
2013-04-04 10:15:00,35.6,20.6,30.16,SSW,203,7.8,11.0,54,0.00,,,0.00,WUHU216HW,2013-04-04 14:15:00,
2013-04-04 10:18:00,36.4,19.5,30.16,SW,225,11.2,11.2,50,0.00,,,0.00,WUHU216HW,2013-04-04 14:18:00,
2013-04-04 10:19:00,36.4,19.0,30.15,SW,225,6.9,11.2,49,0.00,,,0.00,WUHU216HW,2013-04-04 14:19:00,
2013-04-04 10:20:00,36.4,19.0,30.15,SW,225,6.9,11.2,49,0.00,,,0.00,WUHU216HW,2013-04-04 14:20:00,
2013-04-04 10:22:00,36.2,19.4,30.15,SSW,203,8.5,11.2,50,0.00,,,0.00,WUHU216HW,2013-04-04 14:22:00,
2013-04-04 10:24:00,36.4,19.0,30.15,SW,225,9.8,12.3,49,0.00,,,0.00,WUHU216HW,2013-04-04 14:24:00,
2013-04-04 10:25:00,36.4,19.0,30.15,SW,225,9.8,12.3,49,0.00,,,0.00,WUHU216HW,2013-04-04 14:25:00,
2013-04-04 10:27:00,36.5,20.2,30.15,SW,225,4.9,12.3,51,0.00,,,0.00,WUHU216HW,2013-04-04 14:27:00,
2013-04-04 10:30:00,36.9,19.5,30.15,SW,225,10.1,12.3,49,0.00,,,0.00,WUHU216HW,2013-04-04 14:30:00,
2013-04-04 10:32:00,36.4,20.0,30.15,SW,225,9.8,12.3,51,0.00,,,0.00,WUHU216HW,2013-04-04 14:32:00,
2013-04-04 10:35:00,36.4,19.5,30.15,South,180,5.6,10.3,50,0.00,,,0.00,WUHU216HW,2013-04-04 14:35:00,
2013-04-04 10:36:00,36.4,19.5,30.15,South,180,5.6,10.3,50,0.00,,,0.00,WUHU216HW,2013-04-04 14:36:00,
2013-04-04 10:37:00,36.4,19.5,30.15,SW,225,10.5,10.5,50,0.00,,,0.00,WUHU216HW,2013-04-04 14:37:00,
2013-04-04 10:38:00,36.4,19.5,30.15,SW,225,10.5,10.5,50,0.00,,,0.00,WUHU216HW,2013-04-04 14:38:00,
2013-04-04 10:42:00,36.4,19.0,30.14,SSW,203,5.8,10.5,49,0.00,,,0.00,WUHU216HW,2013-04-04 14:42:00,
2013-04-04 10:43:00,36.4,19.0,30.14,SSW,203,5.8,10.5,49,0.00,,,0.00,WUHU216HW,2013-04-04 14:43:00,
2013-04-04 10:47:00,36.4,19.5,30.14,SE,135,6.3,8.1,50,0.00,,,0.00,WUHU216HW,2013-04-04 14:47:00,
2013-04-04 10:48:00,36.5,19.2,30.14,South,180,6.3,8.1,49,0.00,,,0.00,WUHU216HW,2013-04-04 14:48:00,
2013-04-04 10:49:00,36.5,18.6,30.14,South,180,4.7,8.1,48,0.00,,,0.00,WUHU216HW,2013-04-04 14:49:00,
2013-04-04 10:52:00,36.7,19.9,30.14,SW,225,6.9,7.6,50,0.00,,,0.00,WUHU216HW,2013-04-04 14:52:00,
2013-04-04 10:53:00,36.7,19.9,30.14,SSW,203,3.1,7.6,50,0.00,,,0.00,WUHU216HW,2013-04-04 14:53:00,
2013-04-04 10:54:00,36.7,19.9,30.14,SW,225,5.4,7.6,50,0.00,,,0.00,WUHU216HW,2013-04-04 14:54:00,
2013-04-04 10:55:00,36.7,20.4,30.14,SSW,203,6.3,7.6,51,0.00,,,0.00,WUHU216HW,2013-04-04 14:55:00,
2013-04-04 10:57:00,36.9,19.5,30.14,SSW,203,4.0,6.9,49,0.00,,,0.00,WUHU216HW,2013-04-04 14:57:00,
2013-04-04 10:59:00,37.1,19.7,30.14,SSW,203,4.7,6.9,49,0.00,,,0.00,WUHU216HW,2013-04-04 14:59:00,
2013-04-04 11:00:00,37.1,19.2,30.14,South,180,5.4,6.9,48,0.00,,,0.00,WUHU216HW,2013-04-04 15:00:00,
2013-04-04 11:02:00,37.1,20.6,30.14,SSW,203,4.0,6.7,51,0.00,,,0.00,WUHU216HW,2013-04-04 15:02:00,
2013-04-04 11:05:00,37.6,20.2,30.13,SSW,203,4.9,6.7,49,0.00,,,0.00,WUHU216HW,2013-04-04 15:05:00,
2013-04-04 11:07:00,37.1,19.2,30.14,SW,225,5.4,9.2,48,0.00,,,0.00,WUHU216HW,2013-04-04 15:07:00,
2013-04-04 11:08:00,37.1,19.2,30.14,WSW,248,5.4,9.2,48,0.00,,,0.00,WUHU216HW,2013-04-04 15:08:00,
2013-04-04 11:10:00,37.3,19.8,30.13,SW,225,7.6,9.2,49,0.00,,,0.00,WUHU216HW,2013-04-04 15:10:00,
2013-04-04 11:12:00,37.1,19.2,30.13,SSW,203,2.9,9.2,48,0.00,,,0.00,WUHU216HW,2013-04-04 15:12:00,
2013-04-04 11:13:00,37.1,19.2,30.13,South,180,6.3,9.2,48,0.00,,,0.00,WUHU216HW,2013-04-04 15:13:00,
2013-04-04 11:15:00,37.1,19.2,30.13,SW,225,9.6,9.6,48,0.00,,,0.00,WUHU216HW,2013-04-04 15:15:00,
2013-04-04 11:17:00,37.3,20.3,30.13,SW,225,6.3,9.6,50,0.00,,,0.00,WUHU216HW,2013-04-04 15:17:00,
2013-04-04 11:18:00,37.3,20.3,30.13,SW,225,6.3,9.6,50,0.00,,,0.00,WUHU216HW,2013-04-04 15:18:00,
2013-04-04 11:20:00,37.6,20.2,30.13,SW,225,4.7,9.6,49,0.00,,,0.00,WUHU216HW,2013-04-04 15:20:00,
2013-04-04 11:23:00,37.8,19.3,30.13,South,180,3.1,9.6,47,0.00,,,0.00,WUHU216HW,2013-04-04 15:23:00,
2013-04-04 11:24:00,37.8,19.3,30.13,South,180,3.1,9.6,47,0.00,,,0.00,WUHU216HW,2013-04-04 15:24:00,
2013-04-04 11:25:00,38.2,20.2,30.13,SW,225,4.9,6.3,48,0.00,,,0.00,WUHU216HW,2013-04-04 15:25:00,
2013-04-04 11:26:00,38.3,20.3,30.13,SSW,203,4.7,6.3,48,0.00,,,0.00,WUHU216HW,2013-04-04 15:26:00,
2013-04-04 11:29:00,38.7,19.1,30.13,South,180,5.8,7.8,45,0.00,,,0.00,WUHU216HW,2013-04-04 15:29:00,
2013-04-04 11:30:00,38.7,19.5,30.13,SSW,203,5.4,7.8,46,0.00,,,0.00,WUHU216HW,2013-04-04 15:30:00,
2013-04-04 11:31:00,38.9,19.2,30.13,South,180,6.0,7.8,45,0.00,,,0.00,WUHU216HW,2013-04-04 15:31:00,
2013-04-04 11:32:00,38.9,19.2,30.13,SW,225,6.9,7.8,45,0.00,,,0.00,WUHU216HW,2013-04-04 15:32:00,
2013-04-04 11:34:00,38.7,19.1,30.13,SW,225,8.7,8.7,45,0.00,,,0.00,WUHU216HW,2013-04-04 15:34:00,
2013-04-04 11:36:00,38.9,19.7,30.13,SSW,203,4.7,8.7,46,0.00,,,0.00,WUHU216HW,2013-04-04 15:36:00,
2013-04-04 11:37:00,39.2,20.1,30.13,SSW,203,6.0,8.7,46,0.00,,,0.00,WUHU216HW,2013-04-04 15:37:00,
2013-04-04 11:39:00,39.4,19.2,30.13,SSE,158,4.7,8.7,44,0.00,,,0.00,WUHU216HW,2013-04-04 15:39:00,
2013-04-04 11:41:00,39.4,19.7,30.13,South,180,6.9,8.7,45,0.00,,,0.00,WUHU216HW,2013-04-04 15:41:00,
2013-04-04 11:42:00,39.4,19.2,30.13,SSW,203,2.9,8.7,44,0.00,,,0.00,WUHU216HW,2013-04-04 15:42:00,
2013-04-04 11:45:00,39.6,20.3,30.12,SE,135,5.1,7.6,46,0.00,,,0.00,WUHU216HW,2013-04-04 15:45:00,
2013-04-04 11:46:00,39.6,19.9,30.12,SE,135,5.1,7.6,45,0.00,,,0.00,WUHU216HW,2013-04-04 15:46:00,
2013-04-04 11:48:00,39.8,20.0,30.12,SSE,158,4.7,7.6,45,0.00,,,0.00,WUHU216HW,2013-04-04 15:48:00,
2013-04-04 11:50:00,40.0,20.2,30.12,SE,135,2.9,7.6,45,0.00,,,0.00,WUHU216HW,2013-04-04 15:50:00,
2013-04-04 11:52:00,40.7,19.8,30.11,SSE,158,1.1,6.5,43,0.00,,,0.00,WUHU216HW,2013-04-04 15:52:00,
2013-04-04 11:53:00,40.7,20.4,30.11,SW,225,8.3,8.3,44,0.00,,,0.00,WUHU216HW,2013-04-04 15:53:00,
2013-04-04 11:54:00,40.7,19.3,30.11,SSW,203,8.1,8.3,42,0.00,,,0.00,WUHU216HW,2013-04-04 15:54:00,
2013-04-04 11:55:00,40.7,19.8,30.11,SW,225,6.3,8.3,43,0.00,,,0.00,WUHU216HW,2013-04-04 15:55:00,
2013-04-04 11:57:00,40.9,20.0,30.11,South,180,2.9,8.3,43,0.00,,,0.00,WUHU216HW,2013-04-04 15:57:00,
2013-04-04 11:58:00,41.0,20.1,30.11,SW,225,6.3,8.3,43,0.00,,,0.00,WUHU216HW,2013-04-04 15:58:00,
2013-04-04 12:00:00,41.2,18.7,30.11,SW,225,4.3,8.3,40,0.00,,,0.00,WUHU216HW,2013-04-04 16:00:00,
2013-04-04 12:03:00,41.2,18.7,30.11,SSW,203,6.7,8.1,40,0.00,,,0.00,WUHU216HW,2013-04-04 16:03:00,
2013-04-04 12:05:00,40.7,18.2,30.11,South,180,5.8,7.6,40,0.00,,,0.00,WUHU216HW,2013-04-04 16:05:00,
2013-04-04 12:08:00,40.9,18.9,30.10,South,180,6.0,7.6,41,0.00,,,0.00,WUHU216HW,2013-04-04 16:08:00,
2013-04-04 12:10:00,40.7,18.7,30.10,SW,225,2.9,7.6,41,0.00,,,0.00,WUHU216HW,2013-04-04 16:10:00,
2013-04-04 12:11:00,40.9,19.5,30.10,SSE,158,4.7,7.6,42,0.00,,,0.00,WUHU216HW,2013-04-04 16:11:00,
2013-04-04 12:13:00,41.4,19.9,30.10,WSW,248,6.3,6.5,42,0.00,,,0.00,WUHU216HW,2013-04-04 16:13:00,
2013-04-04 12:16:00,41.8,21.3,30.10,SW,225,4.9,7.4,44,0.00,,,0.00,WUHU216HW,2013-04-04 16:16:00,
2013-04-04 12:17:00,41.9,21.0,30.10,SW,225,5.8,7.4,43,0.00,,,0.00,WUHU216HW,2013-04-04 16:17:00,
2013-04-04 12:21:00,42.1,20.1,30.10,SW,225,10.5,10.5,41,0.00,,,0.00,WUHU216HW,2013-04-04 16:21:00,
2013-04-04 12:22:00,42.1,20.1,30.10,SW,225,10.5,10.5,41,0.00,,,0.00,WUHU216HW,2013-04-04 16:22:00,
2013-04-04 12:23:00,41.9,20.4,30.10,SW,225,9.2,10.5,42,0.00,,,0.00,WUHU216HW,2013-04-04 16:23:00,
2013-04-04 12:24:00,41.8,19.7,30.10,SSW,203,6.9,10.5,41,0.00,,,0.00,WUHU216HW,2013-04-04 16:24:00,
2013-04-04 12:27:00,41.9,20.4,30.10,SSW,203,6.0,10.5,42,0.00,,,0.00,WUHU216HW,2013-04-04 16:27:00,
2013-04-04 12:28:00,42.1,20.6,30.10,SW,225,5.1,10.5,42,0.00,,,0.00,WUHU216HW,2013-04-04 16:28:00,
2013-04-04 12:30:00,42.3,20.7,30.09,SSW,203,4.3,10.5,42,0.00,,,0.00,WUHU216HW,2013-04-04 16:30:00,
2013-04-04 12:32:00,42.5,19.8,30.09,SSE,158,5.1,9.2,40,0.00,,,0.00,WUHU216HW,2013-04-04 16:32:00,
2013-04-04 12:34:00,42.5,19.8,30.09,South,180,4.5,7.2,40,0.00,,,0.00,WUHU216HW,2013-04-04 16:34:00,
2013-04-04 12:36:00,42.5,19.8,30.09,SW,225,5.4,6.5,40,0.00,,,0.00,WUHU216HW,2013-04-04 16:36:00,
2013-04-04 12:37:00,42.5,21.4,30.09,SW,225,7.8,7.8,43,0.00,,,0.00,WUHU216HW,2013-04-04 16:37:00,
2013-04-04 12:40:00,42.7,21.1,30.09,SW,225,6.3,7.8,42,0.00,,,0.00,WUHU216HW,2013-04-04 16:40:00,
2013-04-04 12:42:00,43.0,19.6,30.09,SSE,158,6.7,8.1,39,0.00,,,0.00,WUHU216HW,2013-04-04 16:42:00,
2013-04-04 12:43:00,42.8,21.2,30.09,SW,225,6.9,8.1,42,0.00,,,0.00,WUHU216HW,2013-04-04 16:43:00,
2013-04-04 12:46:00,43.0,21.4,30.08,SSW,203,8.9,9.8,42,0.00,,,0.00,WUHU216HW,2013-04-04 16:46:00,
2013-04-04 12:47:00,43.2,21.6,30.08,South,180,8.9,9.8,42,0.00,,,0.00,WUHU216HW,2013-04-04 16:47:00,
2013-04-04 12:48:00,43.2,21.1,30.08,SSW,203,5.4,9.8,41,0.00,,,0.00,WUHU216HW,2013-04-04 16:48:00,
2013-04-04 12:49:00,43.2,22.2,30.08,SSW,203,4.3,9.8,43,0.00,,,0.00,WUHU216HW,2013-04-04 16:49:00,
2013-04-04 12:52:00,43.6,21.9,30.08,South,180,6.5,10.3,42,0.00,,,0.00,WUHU216HW,2013-04-04 16:52:00,
2013-04-04 12:53:00,43.6,21.9,30.08,South,180,6.5,10.3,42,0.00,,,0.00,WUHU216HW,2013-04-04 16:53:00,
2013-04-04 12:54:00,43.6,21.9,30.08,SW,225,9.4,10.3,42,0.00,,,0.00,WUHU216HW,2013-04-04 16:54:00,
2013-04-04 12:55:00,43.6,21.9,30.08,SW,225,9.4,10.3,42,0.00,,,0.00,WUHU216HW,2013-04-04 16:55:00,
2013-04-04 12:57:00,43.4,21.7,30.08,South,180,5.6,11.4,42,0.00,,,0.00,WUHU216HW,2013-04-04 16:57:00,
2013-04-04 12:59:00,43.9,21.7,30.07,South,180,2.5,11.4,41,0.00,,,0.00,WUHU216HW,2013-04-04 16:59:00,
2013-04-04 13:00:00,44.1,21.9,30.07,SW,225,2.7,11.4,41,0.00,,,0.00,WUHU216HW,2013-04-04 17:00:00,
2013-04-04 13:02:00,44.1,21.3,30.07,SSW,203,4.0,11.4,40,0.00,,,0.00,WUHU216HW,2013-04-04 17:02:00,
2013-04-04 13:04:00,43.7,20.4,30.07,SSW,203,6.9,11.4,39,0.00,,,0.00,WUHU216HW,2013-04-04 17:04:00,
2013-04-04 13:06:00,43.4,21.2,30.07,SW,225,6.7,9.8,41,0.00,,,0.00,WUHU216HW,2013-04-04 17:06:00,
2013-04-04 13:07:00,43.4,21.2,30.07,SW,225,6.7,7.2,41,0.00,,,0.00,WUHU216HW,2013-04-04 17:07:00,
2013-04-04 13:10:00,43.7,20.4,30.07,South,180,6.7,7.2,39,0.00,,,0.00,WUHU216HW,2013-04-04 17:10:00,
2013-04-04 13:12:00,43.7,21.0,30.07,SSW,203,7.8,7.8,40,0.00,,,0.00,WUHU216HW,2013-04-04 17:12:00,
2013-04-04 13:13:00,43.6,21.9,30.07,South,180,3.8,7.8,42,0.00,,,0.00,WUHU216HW,2013-04-04 17:13:00,
2013-04-04 13:16:00,44.1,22.4,30.06,South,180,4.0,7.8,42,0.00,,,0.00,WUHU216HW,2013-04-04 17:16:00,
2013-04-04 13:17:00,44.3,21.4,30.06,North,0,1.1,7.8,40,0.00,,,0.00,WUHU216HW,2013-04-04 17:17:00,
2013-04-04 13:18:00,44.3,20.8,30.06,SW,225,5.1,7.8,39,0.00,,,0.00,WUHU216HW,2013-04-04 17:18:00,
2013-04-04 13:22:00,44.3,20.8,30.06,SW,225,7.6,7.6,39,0.00,,,0.00,WUHU216HW,2013-04-04 17:22:00,
2013-04-04 13:23:00,43.9,20.4,30.06,SSW,203,6.9,9.8,39,0.00,,,0.00,WUHU216HW,2013-04-04 17:23:00,
2013-04-04 13:24:00,43.9,19.8,30.06,SW,225,6.9,9.8,38,0.00,,,0.00,WUHU216HW,2013-04-04 17:24:00,
2013-04-04 13:27:00,43.9,20.4,30.06,SW,225,7.4,9.8,39,0.00,,,0.00,WUHU216HW,2013-04-04 17:27:00,
2013-04-04 13:28:00,44.3,21.4,30.06,SSW,203,9.6,9.8,40,0.00,,,0.00,WUHU216HW,2013-04-04 17:28:00,
2013-04-04 13:29:00,44.6,21.8,30.06,SSW,203,7.8,9.8,40,0.00,,,0.00,WUHU216HW,2013-04-04 17:29:00,
2013-04-04 13:30:00,44.6,19.8,30.06,SSW,203,8.5,9.8,37,0.00,,,0.00,WUHU216HW,2013-04-04 17:30:00,
2013-04-04 13:33:00,44.3,20.2,30.05,SSW,203,8.5,9.6,38,0.00,,,0.00,WUHU216HW,2013-04-04 17:33:00,
2013-04-04 13:35:00,44.3,20.8,30.05,SW,225,3.8,9.6,39,0.00,,,0.00,WUHU216HW,2013-04-04 17:35:00,
2013-04-04 13:36:00,44.5,21.0,30.05,SSW,203,4.7,9.6,39,0.00,,,0.00,WUHU216HW,2013-04-04 17:36:00,
2013-04-04 13:37:00,44.5,21.0,30.05,SSW,203,4.7,9.6,39,0.00,,,0.00,WUHU216HW,2013-04-04 17:37:00,
2013-04-04 13:39:00,44.5,20.3,30.05,WSW,248,6.3,8.5,38,0.00,,,0.00,WUHU216HW,2013-04-04 17:39:00,
2013-04-04 13:40:00,44.6,21.2,30.05,WSW,248,10.7,10.7,39,0.00,,,0.00,WUHU216HW,2013-04-04 17:40:00,
2013-04-04 13:42:00,44.5,20.3,30.05,South,180,8.9,11.0,38,0.00,,,0.00,WUHU216HW,2013-04-04 17:42:00,
2013-04-04 13:44:00,44.1,20.0,30.05,South,180,4.7,11.0,38,0.00,,,0.00,WUHU216HW,2013-04-04 17:44:00,
2013-04-04 13:46:00,44.3,20.8,30.04,SW,225,8.5,11.0,39,0.00,,,0.00,WUHU216HW,2013-04-04 17:46:00,
2013-04-04 13:47:00,44.3,20.2,30.04,SSW,203,5.4,11.0,38,0.00,,,0.00,WUHU216HW,2013-04-04 17:47:00,
2013-04-04 13:48:00,44.3,21.4,30.04,SSW,203,8.9,11.0,40,0.00,,,0.00,WUHU216HW,2013-04-04 17:48:00,
2013-04-04 13:49:00,44.1,19.3,30.05,SW,225,8.9,11.0,37,0.00,,,0.00,WUHU216HW,2013-04-04 17:49:00,
2013-04-04 13:52:00,43.9,19.2,30.04,SSW,203,6.9,8.9,37,0.00,,,0.00,WUHU216HW,2013-04-04 17:52:00,
2013-04-04 13:53:00,43.9,19.2,30.04,South,180,4.3,8.9,37,0.00,,,0.00,WUHU216HW,2013-04-04 17:53:00,
2013-04-04 13:54:00,44.1,19.3,30.04,SW,225,11.4,11.4,37,0.00,,,0.00,WUHU216HW,2013-04-04 17:54:00,
2013-04-04 13:55:00,44.1,19.3,30.04,SW,225,11.4,11.4,37,0.00,,,0.00,WUHU216HW,2013-04-04 17:55:00,
2013-04-04 13:58:00,44.3,20.2,30.04,SSW,203,8.5,12.1,38,0.00,,,0.00,WUHU216HW,2013-04-04 17:58:00,
2013-04-04 14:00:00,43.9,18.5,30.04,SSE,158,7.8,12.1,36,0.00,,,0.00,WUHU216HW,2013-04-04 18:00:00,
2013-04-04 14:01:00,43.9,19.2,30.04,SSW,203,4.3,12.1,37,0.00,,,0.00,WUHU216HW,2013-04-04 18:01:00,
2013-04-04 14:05:00,43.9,20.4,30.03,WSW,248,9.6,12.1,39,0.00,,,0.00,WUHU216HW,2013-04-04 18:05:00,
2013-04-04 14:06:00,44.1,21.3,30.03,SW,225,10.3,10.3,40,0.00,,,0.00,WUHU216HW,2013-04-04 18:06:00,
2013-04-04 14:07:00,43.9,21.2,30.03,SSW,203,7.4,10.3,40,0.00,,,0.00,WUHU216HW,2013-04-04 18:07:00,
2013-04-04 14:10:00,43.9,19.8,30.03,WSW,248,12.1,12.1,38,0.00,,,0.00,WUHU216HW,2013-04-04 18:10:00,
2013-04-04 14:11:00,43.7,19.0,30.03,SSW,203,7.6,12.1,37,0.00,,,0.00,WUHU216HW,2013-04-04 18:11:00,
2013-04-04 14:12:00,43.7,20.4,30.03,WSW,248,5.6,12.1,39,0.00,,,0.00,WUHU216HW,2013-04-04 18:12:00,
2013-04-04 14:16:00,43.9,21.2,30.03,SSW,203,6.9,12.1,40,0.00,,,0.00,WUHU216HW,2013-04-04 18:16:00,
2013-04-04 14:18:00,44.3,20.8,30.03,SSW,203,7.2,12.1,39,0.00,,,0.00,WUHU216HW,2013-04-04 18:18:00,
2013-04-04 14:21:00,43.9,19.8,30.03,SSE,158,8.9,11.2,38,0.00,,,0.00,WUHU216HW,2013-04-04 18:21:00,
2013-04-04 14:23:00,43.7,19.6,30.02,WSW,248,5.1,8.9,38,0.00,,,0.00,WUHU216HW,2013-04-04 18:23:00,
2013-04-04 14:24:00,43.7,19.6,30.02,WSW,248,5.1,8.9,38,0.00,,,0.00,WUHU216HW,2013-04-04 18:24:00,
2013-04-04 14:25:00,43.7,20.4,30.03,SW,225,14.3,14.3,39,0.00,,,0.00,WUHU216HW,2013-04-04 18:25:00,
2013-04-04 14:28:00,43.9,20.4,30.03,SSW,203,13.6,14.3,39,0.00,,,0.00,WUHU216HW,2013-04-04 18:28:00,
2013-04-04 14:29:00,43.9,20.4,30.03,SSW,203,13.6,14.3,39,0.00,,,0.00,WUHU216HW,2013-04-04 18:29:00,
2013-04-04 14:30:00,43.9,20.4,30.03,SSW,203,10.5,14.3,39,0.00,,,0.00,WUHU216HW,2013-04-04 18:30:00,
2013-04-04 14:34:00,43.4,20.0,30.03,SW,225,9.2,14.3,39,0.00,,,0.00,WUHU216HW,2013-04-04 18:34:00,
2013-04-04 14:35:00,43.4,20.6,30.03,SW,225,9.8,13.6,40,0.00,,,0.00,WUHU216HW,2013-04-04 18:35:00,
2013-04-04 14:40:00,43.4,19.4,30.03,SSW,203,6.0,11.0,38,0.00,,,0.00,WUHU216HW,2013-04-04 18:40:00,
2013-04-04 14:41:00,43.4,20.0,30.03,SW,225,11.2,11.2,39,0.00,,,0.00,WUHU216HW,2013-04-04 18:41:00,
2013-04-04 14:45:00,43.6,21.3,30.03,SSW,203,11.4,11.4,41,0.00,,,0.00,WUHU216HW,2013-04-04 18:45:00,
2013-04-04 14:46:00,43.6,19.4,30.03,SSW,203,10.3,11.4,38,0.00,,,0.00,WUHU216HW,2013-04-04 18:46:00,
2013-04-04 14:47:00,43.6,20.2,30.03,SSW,203,8.9,11.4,39,0.00,,,0.00,WUHU216HW,2013-04-04 18:47:00,
2013-04-04 14:48:00,43.6,19.4,30.03,SSW,203,12.8,12.8,38,0.00,,,0.00,WUHU216HW,2013-04-04 18:48:00,
2013-04-04 14:51:00,43.4,20.0,30.03,South,180,5.4,12.8,39,0.00,,,0.00,WUHU216HW,2013-04-04 18:51:00,
2013-04-04 14:52:00,43.4,19.4,30.03,South,180,4.0,12.8,38,0.00,,,0.00,WUHU216HW,2013-04-04 18:52:00,
2013-04-04 14:54:00,43.4,19.4,30.03,SW,225,6.3,12.8,38,0.00,,,0.00,WUHU216HW,2013-04-04 18:54:00,
2013-04-04 14:57:00,43.6,19.4,30.03,SW,225,8.5,12.8,38,0.00,,,0.00,WUHU216HW,2013-04-04 18:57:00,
2013-04-04 14:58:00,43.6,19.4,30.03,SW,225,8.5,12.8,38,0.00,,,0.00,WUHU216HW,2013-04-04 18:58:00,
2013-04-04 14:59:00,43.7,21.0,30.02,SSW,203,13.6,13.6,40,0.00,,,0.00,WUHU216HW,2013-04-04 18:59:00,
2013-04-04 15:00:00,43.6,19.4,30.02,SSW,203,8.5,13.6,38,0.00,,,0.00,WUHU216HW,2013-04-04 19:00:00,
2013-04-04 15:02:00,43.6,19.4,30.03,SSW,203,9.2,13.6,38,0.00,,,0.00,WUHU216HW,2013-04-04 19:02:00,
2013-04-04 15:03:00,43.6,19.4,30.03,SSW,203,9.2,13.6,38,0.00,,,0.00,WUHU216HW,2013-04-04 19:03:00,
2013-04-04 15:04:00,43.7,19.0,30.02,SSW,203,7.2,13.6,37,0.00,,,0.00,WUHU216HW,2013-04-04 19:04:00,
2013-04-04 15:05:00,43.6,20.2,30.02,SSW,203,4.3,13.6,39,0.00,,,0.00,WUHU216HW,2013-04-04 19:05:00,
2013-04-04 15:08:00,43.6,19.4,30.02,SSW,203,7.6,13.6,38,0.00,,,0.00,WUHU216HW,2013-04-04 19:08:00,
2013-04-04 15:09:00,43.6,18.8,30.02,South,180,8.1,8.1,37,0.00,,,0.00,WUHU216HW,2013-04-04 19:09:00,
2013-04-04 15:10:00,43.6,18.8,30.02,South,180,8.1,9.6,37,0.00,,,0.00,WUHU216HW,2013-04-04 19:10:00,
2013-04-04 15:11:00,43.6,18.8,30.02,South,180,8.1,9.2,37,0.00,,,0.00,WUHU216HW,2013-04-04 19:11:00,
2013-04-04 15:13:00,43.6,18.8,30.02,South,180,8.1,9.2,37,0.00,,,0.00,WUHU216HW,2013-04-04 19:13:00,
2013-04-04 15:14:00,43.6,18.8,30.02,South,180,8.1,9.2,37,0.00,,,0.00,WUHU216HW,2013-04-04 19:14:00,
2013-04-04 15:15:00,43.6,18.8,30.02,South,180,8.1,9.2,37,0.00,,,0.00,WUHU216HW,2013-04-04 19:15:00,
2013-04-04 15:16:00,43.6,18.8,30.02,South,180,8.1,9.2,37,0.00,,,0.00,WUHU216HW,2013-04-04 19:16:00,
2013-04-04 15:18:00,43.6,18.8,30.02,South,180,8.1,8.1,37,0.00,,,0.00,WUHU216HW,2013-04-04 19:18:00,
2013-04-04 15:39:00,43.6,18.2,30.01,South,180,6.9,6.9,36,0.00,,,0.00,WUHU216HW,2013-04-04 19:39:00,
2013-04-04 15:40:00,43.4,18.0,30.01,South,180,5.4,6.9,36,0.00,,,0.00,WUHU216HW,2013-04-04 19:40:00,
2013-04-04 15:44:00,43.6,18.8,30.00,SSW,203,6.5,10.5,37,0.00,,,0.00,WUHU216HW,2013-04-04 19:44:00,
2013-04-04 15:45:00,43.6,19.4,30.00,South,180,6.0,10.5,38,0.00,,,0.00,WUHU216HW,2013-04-04 19:45:00,
2013-04-04 15:47:00,43.6,18.8,30.00,SSW,203,9.2,10.5,37,0.00,,,0.00,WUHU216HW,2013-04-04 19:47:00,
2013-04-04 15:50:00,43.6,19.4,30.00,South,180,6.7,10.5,38,0.00,,,0.00,WUHU216HW,2013-04-04 19:50:00,
2013-04-04 15:51:00,43.6,18.2,30.00,South,180,9.4,10.5,36,0.00,,,0.00,WUHU216HW,2013-04-04 19:51:00,
2013-04-04 15:53:00,43.6,18.8,30.00,SSW,203,8.9,9.8,37,0.00,,,0.00,WUHU216HW,2013-04-04 19:53:00,
2013-04-04 15:55:00,43.6,19.4,30.00,South,180,5.8,9.8,38,0.00,,,0.00,WUHU216HW,2013-04-04 19:55:00,
2013-04-04 15:56:00,43.6,19.4,30.00,South,180,5.8,9.8,38,0.00,,,0.00,WUHU216HW,2013-04-04 19:56:00,
2013-04-04 16:00:00,43.6,18.8,29.99,South,180,4.7,9.8,37,0.00,,,0.00,WUHU216HW,2013-04-04 20:00:00,
2013-04-04 16:02:00,43.7,19.6,30.00,SSW,203,6.3,9.8,38,0.00,,,0.00,WUHU216HW,2013-04-04 20:02:00,
2013-04-04 16:04:00,43.7,19.0,30.00,SW,225,7.6,9.2,37,0.00,,,0.00,WUHU216HW,2013-04-04 20:04:00,
2013-04-04 16:07:00,43.6,18.8,30.00,SSW,203,7.8,8.5,37,0.00,,,0.00,WUHU216HW,2013-04-04 20:07:00,
2013-04-04 16:08:00,43.6,18.8,30.00,SSW,203,7.8,8.5,37,0.00,,,0.00,WUHU216HW,2013-04-04 20:08:00,
2013-04-04 16:09:00,43.6,19.4,30.00,SSW,203,6.7,8.5,38,0.00,,,0.00,WUHU216HW,2013-04-04 20:09:00,
2013-04-04 16:11:00,43.7,18.3,29.99,SSE,158,9.8,9.8,36,0.00,,,0.00,WUHU216HW,2013-04-04 20:11:00,
2013-04-04 16:13:00,43.6,18.2,29.99,SSW,203,8.1,10.3,36,0.00,,,0.00,WUHU216HW,2013-04-04 20:13:00,
2013-04-04 16:14:00,43.6,18.2,29.99,SE,135,8.3,10.3,36,0.00,,,0.00,WUHU216HW,2013-04-04 20:14:00,
2013-04-04 16:15:00,43.7,18.3,29.99,SSE,158,9.2,10.3,36,0.00,,,0.00,WUHU216HW,2013-04-04 20:15:00,
2013-04-04 16:16:00,43.7,18.3,29.99,SSE,158,9.4,10.3,36,0.00,,,0.00,WUHU216HW,2013-04-04 20:16:00,
2013-04-04 16:20:00,43.6,17.5,29.99,South,180,11.4,11.4,35,0.00,,,0.00,WUHU216HW,2013-04-04 20:20:00,
2013-04-04 16:21:00,43.6,17.5,29.99,South,180,11.4,11.4,35,0.00,,,0.00,WUHU216HW,2013-04-04 20:21:00,
2013-04-04 16:22:00,43.6,18.2,29.99,South,180,11.9,11.9,36,0.00,,,0.00,WUHU216HW,2013-04-04 20:22:00,
2013-04-04 16:25:00,43.6,18.8,29.99,SSE,158,6.3,11.9,37,0.00,,,0.00,WUHU216HW,2013-04-04 20:25:00,
2013-04-04 16:27:00,43.6,18.2,29.99,SSW,203,6.7,11.9,36,0.00,,,0.00,WUHU216HW,2013-04-04 20:27:00,
2013-04-04 16:29:00,43.6,17.5,29.99,SSW,203,9.8,11.9,35,0.00,,,0.00,WUHU216HW,2013-04-04 20:29:00,
2013-04-04 16:30:00,43.6,18.2,29.99,South,180,8.7,11.9,36,0.00,,,0.00,WUHU216HW,2013-04-04 20:30:00,
2013-04-04 16:32:00,43.4,17.3,29.99,South,180,9.2,9.8,35,0.00,,,0.00,WUHU216HW,2013-04-04 20:32:00,
2013-04-04 16:33:00,43.6,18.2,29.99,SSW,203,4.5,9.8,36,0.00,,,0.00,WUHU216HW,2013-04-04 20:33:00,
2013-04-04 16:35:00,43.4,18.0,29.99,South,180,12.1,12.1,36,0.00,,,0.00,WUHU216HW,2013-04-04 20:35:00,
2013-04-04 16:37:00,43.4,18.0,29.99,SSW,203,7.8,12.1,36,0.00,,,0.00,WUHU216HW,2013-04-04 20:37:00,
2013-04-04 16:38:00,43.4,18.0,29.99,SSW,203,7.8,12.1,36,0.00,,,0.00,WUHU216HW,2013-04-04 20:38:00,
2013-04-04 16:42:00,43.2,18.5,29.98,SSW,203,8.5,12.1,37,0.00,,,0.00,WUHU216HW,2013-04-04 20:42:00,
2013-04-04 16:43:00,43.2,18.5,29.98,SSW,203,8.5,12.1,37,0.00,,,0.00,WUHU216HW,2013-04-04 20:43:00,
2013-04-04 16:44:00,43.4,18.0,29.98,South,180,6.9,8.5,36,0.00,,,0.00,WUHU216HW,2013-04-04 20:44:00,
2013-04-04 16:48:00,43.2,17.2,29.98,South,180,8.9,9.4,35,0.00,,,0.00,WUHU216HW,2013-04-04 20:48:00,
2013-04-04 16:50:00,43.2,17.2,29.98,SSE,158,10.5,10.5,35,0.00,,,0.00,WUHU216HW,2013-04-04 20:50:00,
2013-04-04 16:53:00,43.2,17.8,29.98,South,180,7.2,10.5,36,0.00,,,0.00,WUHU216HW,2013-04-04 20:53:00,
2013-04-04 16:55:00,43.2,17.8,29.98,South,180,6.3,10.5,36,0.00,,,0.00,WUHU216HW,2013-04-04 20:55:00,
2013-04-04 16:58:00,43.2,17.8,29.97,SSE,158,8.1,10.5,36,0.00,,,0.00,WUHU216HW,2013-04-04 20:58:00,
2013-04-04 17:00:00,43.2,17.8,29.97,South,180,6.3,8.5,36,0.00,,,0.00,WUHU216HW,2013-04-04 21:00:00,
2013-04-04 17:01:00,43.2,17.8,29.97,South,180,4.7,8.5,36,0.00,,,0.00,WUHU216HW,2013-04-04 21:01:00,
2013-04-04 17:03:00,43.4,17.3,29.97,South,180,6.9,11.2,35,0.00,,,0.00,WUHU216HW,2013-04-04 21:03:00,
2013-04-04 17:06:00,43.2,17.8,29.96,South,180,7.4,11.2,36,0.00,,,0.00,WUHU216HW,2013-04-04 21:06:00,
2013-04-04 17:09:00,43.2,17.8,29.97,South,180,6.0,11.2,36,0.00,,,0.00,WUHU216HW,2013-04-04 21:09:00,
2013-04-04 17:11:00,43.2,17.8,29.96,SSE,158,8.1,11.2,36,0.00,,,0.00,WUHU216HW,2013-04-04 21:11:00,
2013-04-04 17:12:00,43.2,17.8,29.96,SSE,158,8.1,11.2,36,0.00,,,0.00,WUHU216HW,2013-04-04 21:12:00,
2013-04-04 17:14:00,43.2,17.8,29.96,SSW,203,6.3,10.1,36,0.00,,,0.00,WUHU216HW,2013-04-04 21:14:00,
2013-04-04 17:16:00,43.2,18.5,29.96,SSW,203,5.4,10.1,37,0.00,,,0.00,WUHU216HW,2013-04-04 21:16:00,
2013-04-04 17:17:00,43.4,18.6,29.96,South,180,5.4,10.1,37,0.00,,,0.00,WUHU216HW,2013-04-04 21:17:00,
2013-04-04 17:19:00,43.2,19.2,29.96,South,180,2.5,10.1,38,0.00,,,0.00,WUHU216HW,2013-04-04 21:19:00,
2013-04-04 17:22:00,43.2,18.5,29.95,SSW,203,5.6,6.7,37,0.00,,,0.00,WUHU216HW,2013-04-04 21:22:00,
2013-04-04 17:24:00,43.2,17.8,29.95,South,180,6.0,8.5,36,0.00,,,0.00,WUHU216HW,2013-04-04 21:24:00,
2013-04-04 17:25:00,43.2,18.5,29.95,SSE,158,5.4,8.5,37,0.00,,,0.00,WUHU216HW,2013-04-04 21:25:00,
2013-04-04 17:27:00,43.4,18.6,29.95,SSW,203,3.8,8.5,37,0.00,,,0.00,WUHU216HW,2013-04-04 21:27:00,
2013-04-04 17:29:00,43.4,18.6,29.95,SSE,158,4.9,8.5,37,0.00,,,0.00,WUHU216HW,2013-04-04 21:29:00,
2013-04-04 17:30:00,43.2,17.8,29.95,SSE,158,9.6,9.6,36,0.00,,,0.00,WUHU216HW,2013-04-04 21:30:00,
2013-04-04 17:32:00,43.2,17.8,29.95,SSW,203,6.0,9.6,36,0.00,,,0.00,WUHU216HW,2013-04-04 21:32:00,
2013-04-04 17:33:00,43.2,17.8,29.95,SSW,203,6.0,9.6,36,0.00,,,0.00,WUHU216HW,2013-04-04 21:33:00,
2013-04-04 17:35:00,43.2,18.5,29.95,SSW,203,6.7,9.6,37,0.00,,,0.00,WUHU216HW,2013-04-04 21:35:00,
2013-04-04 17:36:00,43.2,18.5,29.95,SSW,203,4.7,9.6,37,0.00,,,0.00,WUHU216HW,2013-04-04 21:36:00,
2013-04-04 17:38:00,43.2,18.5,29.95,South,180,11.2,11.2,37,0.00,,,0.00,WUHU216HW,2013-04-04 21:38:00,
2013-04-04 17:40:00,43.2,17.8,29.95,SSW,203,8.3,11.2,36,0.00,,,0.00,WUHU216HW,2013-04-04 21:40:00,
2013-04-04 17:42:00,43.2,17.8,29.95,SSE,158,7.6,11.2,36,0.00,,,0.00,WUHU216HW,2013-04-04 21:42:00,
2013-04-04 17:44:00,43.2,18.5,29.95,SSE,158,4.3,11.2,37,0.00,,,0.00,WUHU216HW,2013-04-04 21:44:00,
2013-04-04 17:46:00,43.2,19.2,29.95,SSW,203,3.1,11.2,38,0.00,,,0.00,WUHU216HW,2013-04-04 21:46:00,
2013-04-04 17:47:00,43.2,18.5,29.95,South,180,6.3,11.2,37,0.00,,,0.00,WUHU216HW,2013-04-04 21:47:00,
2013-04-04 17:48:00,43.2,19.2,29.95,SE,135,4.0,11.2,38,0.00,,,0.00,WUHU216HW,2013-04-04 21:48:00,
2013-04-04 17:49:00,43.0,18.4,29.95,SSW,203,4.0,8.3,37,0.00,,,0.00,WUHU216HW,2013-04-04 21:49:00,
2013-04-04 17:52:00,43.2,18.5,29.95,SSW,203,3.4,6.3,37,0.00,,,0.00,WUHU216HW,2013-04-04 21:52:00,
2013-04-04 17:53:00,43.2,18.5,29.95,SSW,203,3.4,6.3,37,0.00,,,0.00,WUHU216HW,2013-04-04 21:53:00,
2013-04-04 17:54:00,43.2,18.5,29.95,SSW,203,3.4,6.3,37,0.00,,,0.00,WUHU216HW,2013-04-04 21:54:00,
2013-04-04 17:58:00,43.2,18.5,29.95,SSW,203,3.4,4.0,37,0.00,,,0.00,WUHU216HW,2013-04-04 21:58:00,
2013-04-04 17:59:00,43.2,18.5,29.95,SSW,203,3.4,3.4,37,0.00,,,0.00,WUHU216HW,2013-04-04 21:59:00,
2013-04-04 18:00:00,43.0,18.4,29.95,South,180,4.7,4.7,37,0.00,,,0.00,WUHU216HW,2013-04-04 22:00:00,
2013-04-04 18:03:00,43.0,18.4,29.95,South,180,5.4,6.3,37,0.00,,,0.00,WUHU216HW,2013-04-04 22:03:00,
2013-04-04 18:04:00,43.0,18.4,29.95,South,180,5.4,6.3,37,0.00,,,0.00,WUHU216HW,2013-04-04 22:04:00,
2013-04-04 18:05:00,43.0,18.4,29.95,SSE,158,11.4,11.4,37,0.00,,,0.00,WUHU216HW,2013-04-04 22:05:00,
2013-04-04 18:06:00,43.0,18.4,29.95,SSE,158,11.4,11.4,37,0.00,,,0.00,WUHU216HW,2013-04-04 22:06:00,
2013-04-04 18:08:00,43.0,17.6,29.95,SSW,203,5.4,11.4,36,0.00,,,0.00,WUHU216HW,2013-04-04 22:08:00,
2013-04-04 18:09:00,43.0,18.4,29.95,SSE,158,4.9,11.4,37,0.00,,,0.00,WUHU216HW,2013-04-04 22:09:00,
2013-04-04 18:10:00,43.0,18.4,29.95,SSE,158,5.4,11.4,37,0.00,,,0.00,WUHU216HW,2013-04-04 22:10:00,
2013-04-04 18:12:00,42.8,18.2,29.95,South,180,5.8,11.4,37,0.00,,,0.00,WUHU216HW,2013-04-04 22:12:00,
2013-04-04 18:14:00,42.8,18.2,29.95,South,180,5.1,11.4,37,0.00,,,0.00,WUHU216HW,2013-04-04 22:14:00,
2013-04-04 18:15:00,42.8,18.2,29.95,South,180,5.1,11.4,37,0.00,,,0.00,WUHU216HW,2013-04-04 22:15:00,
2013-04-04 18:16:00,42.8,18.2,29.95,South,180,6.9,6.9,37,0.00,,,0.00,WUHU216HW,2013-04-04 22:16:00,
2013-04-04 18:18:00,42.8,18.2,29.95,South,180,8.7,8.7,37,0.00,,,0.00,WUHU216HW,2013-04-04 22:18:00,
2013-04-04 18:19:00,42.8,18.2,29.95,SSW,203,5.4,8.7,37,0.00,,,0.00,WUHU216HW,2013-04-04 22:19:00,
2013-04-04 18:21:00,42.8,18.2,29.95,SSW,203,9.6,9.6,37,0.00,,,0.00,WUHU216HW,2013-04-04 22:21:00,
2013-04-04 18:22:00,42.8,18.2,29.95,SSE,158,7.8,9.6,37,0.00,,,0.00,WUHU216HW,2013-04-04 22:22:00,
2013-04-04 18:23:00,42.8,18.2,29.95,South,180,4.9,9.6,37,0.00,,,0.00,WUHU216HW,2013-04-04 22:23:00,
2013-04-04 18:25:00,42.8,18.2,29.95,South,180,8.1,9.6,37,0.00,,,0.00,WUHU216HW,2013-04-04 22:25:00,
2013-04-04 18:26:00,42.8,18.2,29.94,South,180,6.9,9.6,37,0.00,,,0.00,WUHU216HW,2013-04-04 22:26:00,
2013-04-04 18:28:00,42.8,18.2,29.95,SSW,203,6.0,9.6,37,0.00,,,0.00,WUHU216HW,2013-04-04 22:28:00,
2013-04-04 18:31:00,42.8,18.8,29.95,South,180,7.4,8.9,38,0.00,,,0.00,WUHU216HW,2013-04-04 22:31:00,
2013-04-04 18:32:00,42.7,18.0,29.95,SSW,203,8.9,8.9,37,0.00,,,0.00,WUHU216HW,2013-04-04 22:32:00,
2013-04-04 18:33:00,42.7,18.0,29.95,SSW,203,8.9,8.9,37,0.00,,,0.00,WUHU216HW,2013-04-04 22:33:00,
2013-04-04 18:34:00,42.7,18.0,29.95,South,180,8.9,8.9,37,0.00,,,0.00,WUHU216HW,2013-04-04 22:34:00,
2013-04-04 18:37:00,42.7,18.6,29.95,SSE,158,7.2,8.9,38,0.00,,,0.00,WUHU216HW,2013-04-04 22:37:00,
2013-04-04 18:38:00,42.7,18.6,29.95,SSE,158,7.2,8.9,38,0.00,,,0.00,WUHU216HW,2013-04-04 22:38:00,
2013-04-04 18:40:00,42.7,18.6,29.95,SSE,158,5.4,9.2,38,0.00,,,0.00,WUHU216HW,2013-04-04 22:40:00,
2013-04-04 18:43:00,42.7,18.6,29.95,South,180,4.7,9.2,38,0.00,,,0.00,WUHU216HW,2013-04-04 22:43:00,
2013-04-04 18:44:00,42.5,18.6,29.95,SSW,203,5.6,9.2,38,0.00,,,0.00,WUHU216HW,2013-04-04 22:44:00,
2013-04-04 18:47:00,42.5,18.6,29.95,SSW,203,5.6,9.2,38,0.00,,,0.00,WUHU216HW,2013-04-04 22:47:00,
2013-04-04 18:48:00,42.5,18.6,29.95,SSW,203,7.4,9.4,38,0.00,,,0.00,WUHU216HW,2013-04-04 22:48:00,
2013-04-04 18:50:00,42.5,18.6,29.95,South,180,6.5,9.4,38,0.00,,,0.00,WUHU216HW,2013-04-04 22:50:00,
2013-04-04 18:52:00,42.3,18.4,29.95,SSW,203,7.2,9.4,38,0.00,,,0.00,WUHU216HW,2013-04-04 22:52:00,
2013-04-04 18:54:00,42.3,18.4,29.95,SSW,203,6.9,9.4,38,0.00,,,0.00,WUHU216HW,2013-04-04 22:54:00,
2013-04-04 18:57:00,42.3,18.4,29.95,South,180,12.1,12.1,38,0.00,,,0.00,WUHU216HW,2013-04-04 22:57:00,
2013-04-04 19:00:00,42.1,18.8,29.95,SSE,158,7.6,12.1,39,0.00,,,0.00,WUHU216HW,2013-04-04 23:00:00,
2013-04-04 19:02:00,42.1,18.2,29.95,South,180,12.1,12.1,38,0.00,,,0.00,WUHU216HW,2013-04-04 23:02:00,
2013-04-04 19:03:00,42.1,18.8,29.95,South,180,5.4,12.1,39,0.00,,,0.00,WUHU216HW,2013-04-04 23:03:00,
2013-04-04 19:04:00,42.1,18.8,29.95,SSW,203,6.3,12.1,39,0.00,,,0.00,WUHU216HW,2013-04-04 23:04:00,
2013-04-04 19:06:00,41.9,18.7,29.95,South,180,9.2,12.1,39,0.00,,,0.00,WUHU216HW,2013-04-04 23:06:00,
2013-04-04 19:08:00,41.8,19.7,29.95,South,180,9.2,12.1,41,0.00,,,0.00,WUHU216HW,2013-04-04 23:08:00,
2013-04-04 19:10:00,41.6,20.1,29.95,SSW,203,12.1,12.8,42,0.00,,,0.00,WUHU216HW,2013-04-04 23:10:00,
2013-04-04 19:12:00,41.4,21.0,29.95,South,180,9.2,13.0,44,0.00,,,0.00,WUHU216HW,2013-04-04 23:12:00,
2013-04-04 19:13:00,41.2,20.8,29.95,SSW,203,16.3,16.3,44,0.00,,,0.00,WUHU216HW,2013-04-04 23:13:00,
2013-04-04 19:15:00,41.0,21.2,29.95,South,180,10.7,16.3,45,0.00,,,0.00,WUHU216HW,2013-04-04 23:15:00,
2013-04-04 19:18:00,40.7,23.0,29.95,SW,225,9.8,16.3,49,0.00,,,0.00,WUHU216HW,2013-04-04 23:18:00,
2013-04-04 19:19:00,40.7,23.0,29.95,SSW,203,11.9,16.3,49,0.00,,,0.00,WUHU216HW,2013-04-04 23:19:00,
2013-04-04 19:21:00,40.3,23.1,29.95,SSW,203,11.0,16.3,50,0.00,,,0.00,WUHU216HW,2013-04-04 23:21:00,
2013-04-04 19:24:00,39.8,24.4,29.95,SSW,203,12.3,13.0,54,0.00,,,0.00,WUHU216HW,2013-04-04 23:24:00,
2013-04-04 19:25:00,39.4,24.9,29.95,South,180,12.3,13.0,56,0.00,,,0.00,WUHU216HW,2013-04-04 23:25:00,
2013-04-04 19:26:00,38.9,25.8,29.95,South,180,12.3,13.4,59,0.00,,,0.00,WUHU216HW,2013-04-04 23:26:00,
2013-04-04 19:29:00,38.2,26.7,29.95,South,180,13.2,13.4,63,0.00,,,0.00,WUHU216HW,2013-04-04 23:29:00,
2013-04-04 19:30:00,38.2,26.7,29.95,South,180,13.2,13.4,63,0.00,,,0.00,WUHU216HW,2013-04-04 23:30:00,
2013-04-04 19:31:00,37.8,26.6,29.95,South,180,11.2,14.8,64,0.00,,,0.00,WUHU216HW,2013-04-04 23:31:00,
2013-04-04 19:35:00,37.3,27.7,29.95,SSW,203,8.7,14.8,68,0.00,,,0.00,WUHU216HW,2013-04-04 23:35:00,
2013-04-04 19:36:00,37.3,27.7,29.95,SSW,203,8.7,14.8,68,0.00,,,0.00,WUHU216HW,2013-04-04 23:36:00,
2013-04-04 19:37:00,37.1,27.9,29.95,SSW,203,7.6,14.8,69,0.00,,,0.00,WUHU216HW,2013-04-04 23:37:00,
2013-04-04 19:40:00,36.7,28.3,29.95,SSW,203,9.2,12.8,71,0.00,,,0.00,WUHU216HW,2013-04-04 23:40:00,
2013-04-04 19:41:00,36.5,28.4,29.95,SSW,203,10.3,12.8,72,0.00,,,0.00,WUHU216HW,2013-04-04 23:41:00,
2013-04-04 19:43:00,36.4,28.5,29.95,South,180,8.7,12.8,73,0.00,,,0.00,WUHU216HW,2013-04-04 23:43:00,
2013-04-04 19:45:00,36.0,28.2,29.95,SSW,203,11.0,12.8,73,0.00,,,0.00,WUHU216HW,2013-04-04 23:45:00,
2013-04-04 19:46:00,36.0,28.8,29.95,SSW,203,8.1,12.8,75,0.00,,,0.00,WUHU216HW,2013-04-04 23:46:00,
2013-04-04 19:47:00,35.8,29.0,29.95,SSW,203,8.3,12.8,76,0.00,,,0.00,WUHU216HW,2013-04-04 23:47:00,
2013-04-04 19:48:00,35.6,28.8,29.95,South,180,6.7,12.8,76,0.00,,,0.00,WUHU216HW,2013-04-04 23:48:00,
2013-04-04 19:51:00,35.5,29.3,29.94,SSW,203,4.5,12.8,78,0.00,,,0.00,WUHU216HW,2013-04-04 23:51:00,
2013-04-04 19:52:00,35.5,29.3,29.94,SSW,203,4.5,12.8,78,0.00,,,0.00,WUHU216HW,2013-04-04 23:52:00,
2013-04-04 19:53:00,35.3,29.1,29.95,SSE,158,9.2,11.0,78,0.00,,,0.00,WUHU216HW,2013-04-04 23:53:00,
2013-04-04 19:57:00,35.3,29.7,29.95,SSW,203,8.1,9.2,80,0.00,,,0.00,WUHU216HW,2013-04-04 23:57:00,
2013-04-04 19:58:00,35.3,29.7,29.95,SSW,203,8.1,9.2,80,0.00,,,0.00,WUHU216HW,2013-04-04 23:58:00,
2013-04-04 20:00:00,34.9,29.6,29.95,SSW,203,8.5,9.2,81,0.00,,,0.00,WUHU216HW,2013-04-05 00:00:00,
2013-04-04 20:03:00,34.9,29.9,29.95,South,180,7.4,8.5,82,0.00,,,0.00,WUHU216HW,2013-04-05 00:03:00,
2013-04-04 20:05:00,34.7,29.7,29.95,South,180,6.0,8.5,82,0.00,,,0.00,WUHU216HW,2013-04-05 00:05:00,
2013-04-04 20:08:00,34.6,29.9,29.94,South,180,7.2,8.5,83,0.01,,,0.00,WUHU216HW,2013-04-05 00:08:00,
2013-04-04 20:09:00,34.6,29.9,29.94,South,180,7.2,8.5,83,0.01,,,0.00,WUHU216HW,2013-04-05 00:09:00,
2013-04-04 20:10:00,34.6,29.9,29.95,SSW,203,4.7,8.5,83,0.01,,,0.01,WUHU216HW,2013-04-05 00:10:00,
2013-04-04 20:13:00,34.6,30.2,29.94,South,180,7.6,7.6,84,0.01,,,0.01,WUHU216HW,2013-04-05 00:13:00,
2013-04-04 20:15:00,34.4,30.0,29.94,SSW,203,4.3,7.6,84,0.01,,,0.01,WUHU216HW,2013-04-05 00:15:00,
2013-04-04 20:16:00,34.4,30.0,29.94,SSW,203,4.3,7.6,84,0.01,,,0.01,WUHU216HW,2013-04-05 00:16:00,
2013-04-04 20:18:00,34.4,30.0,29.94,South,180,5.6,7.6,84,0.01,,,0.01,WUHU216HW,2013-04-05 00:18:00,
2013-04-04 20:21:00,34.2,29.8,29.94,South,180,3.1,7.6,84,0.01,,,0.01,WUHU216HW,2013-04-05 00:21:00,
2013-04-04 20:25:00,34.2,30.1,29.93,SE,135,4.9,6.7,85,0.01,,,0.01,WUHU216HW,2013-04-05 00:25:00,
2013-04-04 20:26:00,34.2,30.1,29.93,SSW,203,2.5,5.8,85,0.01,,,0.01,WUHU216HW,2013-04-05 00:26:00,
2013-04-04 20:27:00,34.2,30.1,29.94,SSW,203,4.7,5.8,85,0.01,,,0.01,WUHU216HW,2013-04-05 00:27:00,
2013-04-04 20:31:00,34.2,30.3,29.93,SSW,203,4.7,5.4,86,0.02,,,0.02,WUHU216HW,2013-04-05 00:31:00,
2013-04-04 20:32:00,34.2,30.3,29.93,SSW,203,4.7,5.4,86,0.02,,,0.02,WUHU216HW,2013-04-05 00:32:00,
2013-04-04 20:36:00,34.0,30.2,29.93,SSW,203,4.0,5.4,86,0.02,,,0.02,WUHU216HW,2013-04-05 00:36:00,
2013-04-04 20:37:00,34.0,30.2,29.93,SSW,203,4.0,5.4,86,0.02,,,0.02,WUHU216HW,2013-04-05 00:37:00,
2013-04-04 20:38:00,34.0,30.2,29.93,SSW,203,4.0,5.4,86,0.02,,,0.02,WUHU216HW,2013-04-05 00:38:00,
2013-04-04 20:42:00,34.0,30.2,29.93,SSW,203,4.0,5.1,86,0.02,,,0.02,WUHU216HW,2013-04-05 00:42:00,
2013-04-04 20:43:00,34.0,30.2,29.93,SSW,203,4.0,4.0,86,0.02,,,0.02,WUHU216HW,2013-04-05 00:43:00,
2013-04-04 21:00:00,33.7,30.7,29.93,SSW,203,3.6,3.6,89,0.05,,,0.02,WUHU216HW,2013-04-05 01:00:00,
2013-04-04 21:01:00,33.7,30.7,29.93,SW,225,4.5,4.5,89,0.05,,,0.05,WUHU216HW,2013-04-05 01:01:00,
2013-04-04 21:05:00,33.7,30.7,29.93,South,180,4.5,6.3,89,0.04,,,0.05,WUHU216HW,2013-04-05 01:05:00,
2013-04-04 21:07:00,33.7,30.7,29.93,South,180,6.3,6.3,89,0.05,,,0.05,WUHU216HW,2013-04-05 01:07:00,
2013-04-04 21:09:00,33.5,30.5,29.93,South,180,5.8,6.7,89,0.05,,,0.06,WUHU216HW,2013-04-05 01:09:00,
2013-04-04 21:10:00,33.5,30.5,29.93,SSW,203,4.0,6.7,89,0.05,,,0.06,WUHU216HW,2013-04-05 01:10:00,
2013-04-04 21:12:00,33.5,30.5,29.93,South,180,3.4,6.7,89,0.06,,,0.06,WUHU216HW,2013-04-05 01:12:00,
2013-04-04 21:13:00,33.5,30.5,29.93,South,180,3.4,6.7,89,0.06,,,0.06,WUHU216HW,2013-04-05 01:13:00,
2013-04-04 21:15:00,33.5,30.5,29.93,SSW,203,3.6,6.7,89,0.07,,,0.07,WUHU216HW,2013-04-05 01:15:00,
2013-04-04 21:16:00,33.5,30.5,29.93,SSW,203,4.0,6.7,89,0.07,,,0.08,WUHU216HW,2013-04-05 01:16:00,
2013-04-04 21:17:00,33.5,30.8,29.93,SSW,203,3.4,6.7,90,0.08,,,0.08,WUHU216HW,2013-04-05 01:17:00,
2013-04-04 21:18:00,33.5,30.8,29.93,SSW,203,4.5,5.8,90,0.08,,,0.09,WUHU216HW,2013-04-05 01:18:00,
2013-04-04 21:20:00,33.5,30.8,29.93,SSW,203,4.7,5.1,90,0.09,,,0.09,WUHU216HW,2013-04-05 01:20:00,
2013-04-04 21:21:00,33.5,30.8,29.93,SSW,203,5.4,5.4,90,0.09,,,0.10,WUHU216HW,2013-04-05 01:21:00,
2013-04-04 21:23:00,33.5,30.8,29.93,SSW,203,4.3,5.4,90,0.09,,,0.10,WUHU216HW,2013-04-05 01:23:00,
2013-04-04 21:25:00,33.5,30.8,29.92,South,180,4.3,5.4,90,0.10,,,0.11,WUHU216HW,2013-04-05 01:25:00,
2013-04-04 21:27:00,33.5,30.8,29.92,South,180,3.1,5.4,90,0.11,,,0.11,WUHU216HW,2013-04-05 01:27:00,
2013-04-04 21:29:00,33.3,30.7,29.92,South,180,4.0,5.4,90,0.10,,,0.12,WUHU216HW,2013-04-05 01:29:00,
2013-04-04 21:30:00,33.3,30.7,29.92,South,180,4.0,5.4,90,0.10,,,0.12,WUHU216HW,2013-04-05 01:30:00,
2013-04-04 21:32:00,33.3,31.0,29.92,South,180,2.9,4.7,91,0.11,,,0.12,WUHU216HW,2013-04-05 01:32:00,
2013-04-04 21:35:00,33.3,31.0,29.92,SSW,203,3.8,4.3,91,0.11,,,0.13,WUHU216HW,2013-04-05 01:35:00,
2013-04-04 21:37:00,33.3,31.0,29.92,SW,225,3.4,4.3,91,0.11,,,0.13,WUHU216HW,2013-04-05 01:37:00,
2013-04-04 21:38:00,33.3,31.0,29.92,SSW,203,4.0,4.3,91,0.11,,,0.13,WUHU216HW,2013-04-05 01:38:00,
2013-04-04 21:40:00,33.3,31.0,29.93,SSW,203,4.0,4.3,91,0.11,,,0.13,WUHU216HW,2013-04-05 01:40:00,
2013-04-04 21:43:00,33.3,31.0,29.92,South,180,4.3,4.3,91,0.11,,,0.14,WUHU216HW,2013-04-05 01:43:00,
2013-04-04 21:44:00,33.3,31.0,29.92,South,180,4.3,4.3,91,0.11,,,0.14,WUHU216HW,2013-04-05 01:44:00,
2013-04-04 21:45:00,33.3,31.0,29.92,SSW,203,3.4,4.3,91,0.11,,,0.14,WUHU216HW,2013-04-05 01:45:00,
2013-04-04 21:46:00,33.3,31.0,29.92,SSW,203,3.4,4.3,91,0.11,,,0.14,WUHU216HW,2013-04-05 01:46:00,
2013-04-04 21:49:00,33.3,31.0,29.92,SSW,203,3.4,4.3,91,0.10,,,0.14,WUHU216HW,2013-04-05 01:49:00,
2013-04-04 21:50:00,33.5,31.1,29.92,South,180,4.9,4.9,91,0.10,,,0.14,WUHU216HW,2013-04-05 01:50:00,
2013-04-04 21:51:00,33.5,31.1,29.92,South,180,4.9,4.9,91,0.10,,,0.14,WUHU216HW,2013-04-05 01:51:00,
2013-04-04 21:52:00,33.5,31.1,29.92,SSW,203,2.7,4.9,91,0.10,,,0.14,WUHU216HW,2013-04-05 01:52:00,
2013-04-04 21:55:00,33.5,31.1,29.92,South,180,4.0,4.9,91,0.11,,,0.15,WUHU216HW,2013-04-05 01:55:00,
2013-04-04 21:56:00,33.5,31.1,29.92,South,180,5.1,5.1,91,0.11,,,0.15,WUHU216HW,2013-04-05 01:56:00,
2013-04-04 21:57:00,33.5,31.3,29.92,South,180,4.7,5.1,92,0.10,,,0.15,WUHU216HW,2013-04-05 01:57:00,
2013-04-04 21:58:00,33.5,31.1,29.92,SSW,203,4.7,5.1,91,0.10,,,0.15,WUHU216HW,2013-04-05 01:58:00,
2013-04-04 22:00:00,33.5,31.1,29.92,SSW,203,3.8,5.1,91,0.10,,,0.15,WUHU216HW,2013-04-05 02:00:00,
2013-04-04 22:01:00,33.5,31.1,29.92,SSW,203,4.9,5.1,91,0.10,,,0.15,WUHU216HW,2013-04-05 02:01:00,
2013-04-04 22:04:00,33.5,31.3,29.92,SSW,203,4.3,5.1,92,0.10,,,0.15,WUHU216HW,2013-04-05 02:04:00,
2013-04-04 22:05:00,33.5,31.3,29.91,SSW,203,4.7,4.9,92,0.10,,,0.16,WUHU216HW,2013-04-05 02:05:00,
2013-04-04 22:07:00,33.5,31.3,29.91,South,180,4.0,4.9,92,0.10,,,0.16,WUHU216HW,2013-04-05 02:07:00,
2013-04-04 22:10:00,33.5,31.3,29.91,SSW,203,1.8,4.9,92,0.09,,,0.16,WUHU216HW,2013-04-05 02:10:00,
2013-04-04 22:11:00,33.5,31.3,29.91,SSW,203,3.8,4.7,92,0.10,,,0.17,WUHU216HW,2013-04-05 02:11:00,
2013-04-04 22:13:00,33.5,31.3,29.91,SSW,203,3.1,4.7,92,0.09,,,0.17,WUHU216HW,2013-04-05 02:13:00,
2013-04-04 22:15:00,33.5,31.3,29.91,SSW,203,4.0,4.5,92,0.09,,,0.17,WUHU216HW,2013-04-05 02:15:00,
2013-04-04 22:17:00,33.5,31.3,29.91,South,180,2.5,4.5,92,0.07,,,0.17,WUHU216HW,2013-04-05 02:17:00,
2013-04-04 22:19:00,33.5,31.3,29.91,South,180,1.8,4.5,92,0.08,,,0.17,WUHU216HW,2013-04-05 02:19:00,
2013-04-04 22:22:00,33.5,31.4,29.91,SSW,203,2.5,4.0,92,0.07,,,0.00,WUHU216HW,2013-04-05 02:22:00,
2013-04-04 22:23:00,33.5,31.3,29.90,SSW,203,2.5,4.0,92,0.07,,,0.00,WUHU216HW,2013-04-05 02:23:00,
2013-04-04 22:25:00,33.5,31.3,29.90,South,180,3.4,3.4,92,0.06,,,0.00,WUHU216HW,2013-04-05 02:25:00,
2013-04-04 22:27:00,33.5,31.3,29.90,SSW,203,2.2,3.4,92,0.06,,,0.00,WUHU216HW,2013-04-05 02:27:00,
2013-04-04 22:28:00,33.5,31.3,29.90,South,180,2.7,3.4,92,0.06,,,0.00,WUHU216HW,2013-04-05 02:28:00,
2013-04-04 22:31:00,33.5,31.3,29.90,SSE,158,1.8,3.4,92,0.05,,,0.00,WUHU216HW,2013-04-05 02:31:00,
2013-04-04 22:32:00,33.5,31.3,29.90,SSW,203,1.8,3.4,92,0.06,,,0.00,WUHU216HW,2013-04-05 02:32:00,
2013-04-04 22:33:00,33.5,31.3,29.90,SSW,203,1.8,3.4,92,0.06,,,0.00,WUHU216HW,2013-04-05 02:33:00,
2013-04-04 22:34:00,33.5,31.3,29.90,South,180,1.3,3.4,92,0.06,,,0.01,WUHU216HW,2013-04-05 02:34:00,
2013-04-04 22:37:00,33.5,31.3,29.89,SSW,203,2.5,2.7,92,0.06,,,0.01,WUHU216HW,2013-04-05 02:37:00,
2013-04-04 22:38:00,33.5,31.3,29.89,SSW,203,2.5,2.7,92,0.06,,,0.01,WUHU216HW,2013-04-05 02:38:00,
2013-04-04 22:40:00,33.5,31.3,29.89,SW,225,2.2,2.5,92,0.06,,,0.01,WUHU216HW,2013-04-05 02:40:00,
2013-04-04 22:43:00,33.5,31.3,29.89,SSW,203,2.2,2.7,92,0.05,,,0.01,WUHU216HW,2013-04-05 02:43:00,
2013-04-04 22:44:00,33.5,31.3,29.89,SW,225,2.5,2.7,92,0.05,,,0.01,WUHU216HW,2013-04-05 02:44:00,
2013-04-04 22:45:00,33.5,31.3,29.89,SW,225,2.5,2.7,92,0.05,,,0.01,WUHU216HW,2013-04-05 02:45:00,
2013-04-04 22:48:00,33.5,31.3,29.89,SSW,203,2.5,2.7,92,0.05,,,0.01,WUHU216HW,2013-04-05 02:48:00,
2013-04-04 22:49:00,33.5,31.3,29.89,SSW,203,2.5,2.7,92,0.05,,,0.01,WUHU216HW,2013-04-05 02:49:00,
2013-04-04 22:50:00,33.7,31.5,29.89,South,180,2.5,2.7,92,0.05,,,0.01,WUHU216HW,2013-04-05 02:50:00,
2013-04-04 22:52:00,33.7,31.5,29.89,SSW,203,1.8,2.5,92,0.05,,,0.02,WUHU216HW,2013-04-05 02:52:00,
2013-04-04 22:53:00,33.5,31.3,29.88,SSW,203,1.8,2.5,92,0.05,,,0.02,WUHU216HW,2013-04-05 02:53:00,
2013-04-04 22:54:00,33.7,31.5,29.88,SSW,203,1.8,2.5,92,0.05,,,0.02,WUHU216HW,2013-04-05 02:54:00,
2013-04-04 22:55:00,33.7,31.5,29.88,SSW,203,1.8,2.5,92,0.05,,,0.02,WUHU216HW,2013-04-05 02:55:00,
2013-04-04 22:57:00,33.7,31.5,29.88,SW,225,3.4,4.0,92,0.05,,,0.02,WUHU216HW,2013-04-05 02:57:00,
2013-04-04 22:59:00,33.7,31.5,29.88,SW,225,3.4,4.0,92,0.05,,,0.02,WUHU216HW,2013-04-05 02:59:00,
2013-04-04 23:00:00,33.7,31.5,29.88,SW,225,3.4,4.0,92,0.04,,,0.02,WUHU216HW,2013-04-05 03:00:00,
2013-04-04 23:01:00,33.7,31.5,29.88,SW,225,3.4,4.0,92,0.04,,,0.02,WUHU216HW,2013-04-05 03:01:00,
2013-04-04 23:03:00,33.7,31.5,29.88,SW,225,2.5,4.0,92,0.04,,,0.02,WUHU216HW,2013-04-05 03:03:00,
2013-04-04 23:05:00,33.7,31.5,29.88,SSW,203,2.5,4.0,92,0.04,,,0.02,WUHU216HW,2013-04-05 03:05:00,
2013-04-04 23:06:00,33.7,31.5,29.88,SSW,203,2.7,4.0,92,0.04,,,0.02,WUHU216HW,2013-04-05 03:06:00,
2013-04-04 23:10:00,33.7,31.5,29.87,SSW,203,1.8,2.9,92,0.03,,,0.02,WUHU216HW,2013-04-05 03:10:00,
2013-04-04 23:11:00,33.7,31.5,29.87,SSW,203,1.8,2.9,92,0.03,,,0.02,WUHU216HW,2013-04-05 03:11:00,
2013-04-04 23:12:00,33.7,31.5,29.87,SSW,203,2.0,2.7,92,0.03,,,0.02,WUHU216HW,2013-04-05 03:12:00,
2013-04-04 23:16:00,33.8,31.7,29.87,WSW,248,3.8,4.3,92,0.02,,,0.02,WUHU216HW,2013-04-05 03:16:00,
2013-04-04 23:17:00,33.7,31.5,29.87,WSW,248,3.4,4.3,92,0.02,,,0.02,WUHU216HW,2013-04-05 03:17:00,
2013-04-04 23:22:00,33.8,31.7,29.87,SW,225,4.0,5.4,92,0.03,,,0.03,WUHU216HW,2013-04-05 03:22:00,
2013-04-04 23:23:00,33.8,31.7,29.87,WSW,248,4.0,5.4,92,0.03,,,0.03,WUHU216HW,2013-04-05 03:23:00,
2013-04-04 23:24:00,33.8,31.7,29.87,SW,225,5.4,5.4,92,0.03,,,0.03,WUHU216HW,2013-04-05 03:24:00,
2013-04-04 23:27:00,33.8,31.7,29.87,SW,225,3.4,5.4,92,0.03,,,0.03,WUHU216HW,2013-04-05 03:27:00,
2013-04-04 23:28:00,33.8,31.7,29.87,SW,225,4.0,5.4,92,0.03,,,0.03,WUHU216HW,2013-04-05 03:28:00,
2013-04-04 23:30:00,33.8,31.7,29.87,SW,225,4.7,5.4,92,0.03,,,0.03,WUHU216HW,2013-04-05 03:30:00,
2013-04-04 23:32:00,33.8,31.7,29.87,SSW,203,4.5,5.4,92,0.02,,,0.03,WUHU216HW,2013-04-05 03:32:00,
2013-04-04 23:33:00,33.8,31.7,29.87,SSW,203,3.6,5.4,92,0.02,,,0.03,WUHU216HW,2013-04-05 03:33:00,
2013-04-04 23:34:00,33.8,31.7,29.87,SSW,203,3.6,5.4,92,0.02,,,0.03,WUHU216HW,2013-04-05 03:34:00,
2013-04-04 23:36:00,33.7,31.5,29.86,SW,225,1.6,4.7,92,0.02,,,0.03,WUHU216HW,2013-04-05 03:36:00,
2013-04-04 23:38:00,33.8,31.7,29.86,SSW,203,2.5,4.7,92,0.02,,,0.03,WUHU216HW,2013-04-05 03:38:00,
2013-04-04 23:40:00,33.8,31.7,29.87,WSW,248,3.4,4.7,92,0.02,,,0.03,WUHU216HW,2013-04-05 03:40:00,
2013-04-04 23:41:00,33.8,31.7,29.86,SW,225,3.4,4.5,92,0.02,,,0.03,WUHU216HW,2013-04-05 03:41:00,
2013-04-04 23:43:00,33.8,31.7,29.86,SSW,203,3.4,4.0,92,0.02,,,0.03,WUHU216HW,2013-04-05 03:43:00,
2013-04-04 23:45:00,33.8,31.7,29.86,SSW,203,2.5,4.0,92,0.03,,,0.03,WUHU216HW,2013-04-05 03:45:00,
2013-04-04 23:47:00,33.7,31.5,29.86,SSW,203,3.6,4.0,92,0.03,,,0.04,WUHU216HW,2013-04-05 03:47:00,
2013-04-04 23:49:00,33.8,31.7,29.86,SW,225,2.5,4.0,92,0.02,,,0.04,WUHU216HW,2013-04-05 03:49:00,
2013-04-04 23:50:00,33.7,31.5,29.86,SW,225,3.6,4.0,92,0.02,,,0.04,WUHU216HW,2013-04-05 03:50:00,
2013-04-04 23:51:00,33.7,31.5,29.86,SW,225,3.6,4.0,92,0.02,,,0.04,WUHU216HW,2013-04-05 03:51:00,
2013-04-04 23:54:00,33.7,31.5,29.85,SW,225,4.0,4.0,92,0.02,,,0.04,WUHU216HW,2013-04-05 03:54:00,
2013-04-04 23:55:00,33.7,31.5,29.85,SW,225,4.0,4.0,92,0.02,,,0.04,WUHU216HW,2013-04-05 03:55:00,
2013-04-04 23:56:00,33.7,31.5,29.85,SSW,203,4.0,4.0,92,0.02,,,0.04,WUHU216HW,2013-04-05 03:56:00,
2013-04-04 23:59:00,33.7,31.5,29.85,SSW,203,2.5,4.0,92,0.02,,,0.04,WUHU216HW,2013-04-05 03:59:00,